Level: Generation 1 Hard 3
Medal times: 8.427 author, 9.600 gold, 10.500 silver (finish the level to receive the bronze medal).
4 laps. Author lap times: 1.350, 2.350, 2.333, 2.394
Global leaderboard:country
|| online
|| | time date time player #rank lap times
US N 8.408s 2023-05-13 13:57 Chazb #6001 1.450,2.250,2.383,2.325
HR N 8.408s 2023-05-16 09:14 MuZa0 #6002 1.450,2.250,2.383,2.325
MX Y 8.408s 2023-06-05 13:21 abii #6003 1.450,2.250,2.383,2.325
FR N 8.408s 2023-06-08 07:36 Guest5338 #6004 1.450,2.250,2.383,2.325
NL N 8.408s 2023-06-12 11:25 ArbaTheBest #6005 1.450,2.250,2.383,2.325
US N 8.408s 2023-06-14 16:27 Daco #6006 1.400,2.350,2.333,2.325
NL N 8.408s 2023-06-22 08:10 AdvisedToast25 #6007 1.450,2.250,2.383,2.325
US Y 8.408s 2023-07-09 22:55 MONKEY #6008 1.450,2.250,2.383,2.325
US N 8.408s 2023-10-10 16:21 Not_Diegohd #6009 1.450,2.250,2.383,2.325
XK N 8.408s 2023-10-25 19:26 Grim #6010 1.450,2.250,2.383,2.325
SE N 8.408s 2023-11-08 08:36 Exonoob #6011 1.450,2.250,2.383,2.325
US N 8.408s 2023-11-16 00:01 Guest1045 #6012 1.383,2.367,2.333,2.325
NL N 8.408s 2023-11-23 09:34 plain #6013 1.350,2.366,2.350,2.342
US N 8.408s 2023-11-25 03:40 Guest3695 #6014 1.450,2.250,2.383,2.325
CA N 8.408s 2024-01-26 03:24 DreamlikeBadge2 #6015 1.450,2.250,2.383,2.325
FR Y 8.408s 2024-02-08 15:33 Shimzd #6016 1.450,2.250,2.383,2.325
JP N 8.408s 2024-02-09 14:26 plzm52 #6017 1.450,2.250,2.383,2.325
BE N 8.408s 2024-02-20 18:54 omega #6018 1.450,2.250,2.383,2.325
US N 8.408s 2024-04-15 12:21 Nemausicae #6019 1.450,2.250,2.383,2.325
NL N 8.408s 2024-04-16 12:19 bart2ww #6020 1.450,2.250,2.383,2.325
AE N 8.408s 2024-05-23 11:40 →★●Cyan⇔ide●★← #6021 1.350,2.383,2.333,2.342
IL N 8.408s 2024-06-06 20:28 kolpi the goat #6022 1.450,2.250,2.383,2.325
JP Y 8.408s 2024-07-02 14:17 nekoneko #6023 1.450,2.250,2.383,2.325
AU Y 8.408s 2024-08-04 13:09 Buchanan🤍 #6024 1.450,2.250,2.383,2.325
NO N 8.408s 2024-08-05 14:52 DoffiLoffi #6025 1.400,2.350,2.333,2.325
NL Y 8.408s 2024-08-10 16:48 nnn #6026 1.450,2.250,2.383,2.325
CA N 8.408s 2024-09-16 22:09 Shaikru #6027 1.450,2.250,2.383,2.325
SE N 8.408s 2025-04-14 12:54 Penis klock #6028 1.450,2.250,2.383,2.325
NZ N 8.408s 2025-05-07 12:01 UrDogwater #6029 1.450,2.250,2.383,2.325
GB N 8.408s 2025-08-11 16:25 alex67 #6030 1.450,2.250,2.383,2.325
GE Y 8.408s 2025-12-23 12:30 Chichi #6031 1.450,2.250,2.383,2.325
NL N 8.408s 2025-12-31 15:31 yup #6032 1.450,2.250,2.383,2.325
FR Y 8.408s 2026-03-26 14:44 lecreeperbleuyt #6033 1.400,2.350,2.333,2.325
FR N 8.408s 2026-03-29 15:12 Gamera75 #6034 1.450,2.250,2.383,2.325
US N 8.408s 2026-04-09 11:25 rig #6035 1.450,2.250,2.383,2.325
NL Y 8.408s 2026-04-10 09:59 Julachu #6036 1.400,2.350,2.333,2.325
FR N 8.408s 2026-04-24 18:23 JGaiming13 #6037 1.400,2.350,2.333,2.325
FR Y 8.409s 2022-10-11 05:09 Ernix48 #6038 1.450,2.333,2.333,2.293
FR Y 8.409s 2023-05-19 11:06 Ninjis #6039 1.433,2.300,2.383,2.293
GB Y 8.409s 2023-10-19 16:51 𝖋𝖔𝖋𝖋𝖎🐱 #6040 1.383,2.367,2.350,2.309
ZA N 8.409s 2023-11-04 13:19 MrSpoons #6041 1.350,2.366,2.367,2.326
US N 8.409s 2023-11-18 07:31 Blimp0 #6042 1.350,2.350,2.350,2.359
DE N 8.409s 2024-06-19 08:44 Guest2203 #6043 1.350,2.350,2.416,2.293
MX Y 8.410s 2022-07-03 17:39 klonk #6044 1.433,2.333,2.334,2.310
AR N 8.410s 2022-07-03 22:08 RogueTrucker20 #6045 1.416,2.317,2.333,2.344
SE N 8.410s 2022-07-04 14:08 Adamski #6046 1.450,2.316,2.284,2.360
UY N 8.410s 2022-07-04 20:33 MagicOrangutan0 #6047 1.433,2.400,2.267,2.310
CA N 8.410s 2022-07-06 16:44 Trix #6048 1.400,2.366,2.300,2.344
CA N 8.410s 2022-07-07 07:54 slapppe #6049 1.366,2.300,2.384,2.360
SI N 8.410s 2022-08-03 18:17 fizz #6050 1.450,2.316,2.284,2.360
DE N 8.410s 2022-08-04 00:00 BRTHgetSn1pz #6051 1.450,2.250,2.316,2.394
ZA Y 8.410s 2022-09-07 05:13 WrAtH #6052 1.450,2.316,2.284,2.360
GB Y 8.410s 2022-09-07 15:38 TheDwub #6053 1.450,2.316,2.334,2.310
NL N 8.410s 2022-09-08 06:52 Sebba #6054 1.450,2.316,2.284,2.360
FR Y 8.410s 2022-09-08 13:28 K4cade01 #6055 1.433,2.317,2.333,2.327
FR Y 8.410s 2022-10-11 07:18 Guest6237 #6056 1.466,2.317,2.333,2.294
NL Y 8.410s 2022-10-11 15:41 Bauke #6057 1.450,2.250,2.316,2.394
RO Y 8.410s 2022-12-07 09:25 bobo #6058 1.450,2.250,2.316,2.394
PL Y 8.410s 2022-12-07 11:21 fast speed #6059 1.383,2.317,2.366,2.344
PT Y 8.410s 2022-12-07 15:18 Yun_half_alive #6060 1.400,2.316,2.284,2.410
CZ Y 8.410s 2022-12-07 19:27 AAAauto #6061 1.450,2.333,2.333,2.294
CZ Y 8.410s 2022-12-07 19:28 Admiral Gekon #6062 1.383,2.317,2.300,2.410
BE N 8.410s 2022-12-08 11:34 the big pro #6063 1.450,2.316,2.284,2.360
MA Y 8.410s 2022-12-08 17:14 saadinho #6064 1.466,2.367,2.267,2.310
MU Y 8.410s 2022-12-08 22:06 Tbone #6065 1.450,2.250,2.316,2.394
GR Y 8.410s 2022-12-09 10:23 Aricarkamalos #6066 1.466,2.317,2.333,2.294
IL N 8.410s 2022-12-09 17:11 yuval berel #6067 1.416,2.367,2.300,2.327
IT Y 8.410s 2022-12-09 17:27 RazeAirFox #6068 1.383,2.333,2.284,2.410
PL N 8.410s 2022-12-09 20:26 Nrocinu0909 #6069 1.400,2.316,2.284,2.410
LT N 8.410s 2022-12-10 15:25 domasLTU #6070 1.400,2.333,2.333,2.344
IL N 8.410s 2022-12-10 20:35 The Acker #6071 1.466,2.317,2.333,2.294
EE N 8.410s 2022-12-10 21:28 boijoonas #6072 1.450,2.316,2.334,2.310
PR Y 8.410s 2022-12-11 00:33 Vader #6073 1.400,2.316,2.284,2.410
BG Y 8.410s 2022-12-11 08:06 GeGaTa #6074 1.450,2.316,2.284,2.360
ES Y 8.410s 2022-12-11 12:41 BooO #6075 1.450,2.283,2.400,2.277
GR N 8.410s 2022-12-11 19:56 KookyJokester14 #6076 1.450,2.250,2.316,2.394
LV N 8.410s 2022-12-12 06:50 PieceControlVal #6077 1.466,2.317,2.333,2.294
RO Y 8.410s 2022-12-12 20:28 Stef #6078 1.450,2.316,2.284,2.360
PT Y 8.410s 2022-12-13 09:18 Mr_Crabb #6079 1.450,2.316,2.284,2.360
IT N 8.410s 2022-12-13 14:58 CANCER GOD #6080 1.450,2.316,2.284,2.360
IE Y 8.410s 2022-12-13 22:19 Ben #6081 1.400,2.316,2.284,2.410
PL N 8.410s 2022-12-14 12:52 DarkCat #6082 1.350,2.366,2.350,2.344
PL N 8.410s 2022-12-14 20:05 PatttLOLOH #6083 1.383,2.333,2.284,2.410
CH Y 8.410s 2022-12-14 20:58 JayV #6084 1.450,2.316,2.284,2.360
AT N 8.410s 2022-12-15 06:17 Muha95K #6085 1.466,2.367,2.267,2.310
CH Y 8.410s 2022-12-15 18:04 exolegad #6086 1.416,2.317,2.333,2.344
BE Y 8.410s 2022-12-15 19:06 Sahil kaaous #6087 1.450,2.250,2.316,2.394
BS Y 8.410s 2022-12-15 19:50 cupid #6088 1.450,2.316,2.284,2.360
AL Y 8.410s 2022-12-16 01:41 tartarust1 #6089 1.450,2.250,2.316,2.394
SI Y 8.410s 2022-12-16 09:03 Cum #6090 1.350,2.350,2.366,2.344
GR Y 8.410s 2022-12-16 11:28 Panos #6091 1.400,2.316,2.350,2.344
IE Y 8.410s 2022-12-16 14:51 ItzCilldog #6092 1.466,2.317,2.333,2.294
PL Y 8.410s 2022-12-16 20:04 Kszx1569 #6093 1.450,2.250,2.316,2.394
CZ Y 8.410s 2022-12-17 08:39 Euioay #6094 1.350,2.350,2.350,2.360
RO N 8.410s 2022-12-17 11:58 OJI #6095 1.383,2.317,2.366,2.344
GE N 8.410s 2022-12-17 15:44 RancidRambler47 #6096 1.450,2.333,2.333,2.294
RO N 8.410s 2022-12-18 10:42 XRedDragonX57 #6097 1.450,2.316,2.284,2.360
NO Y 8.410s 2022-12-18 16:47 QUANTUMPHYSICS #6098 1.466,2.367,2.267,2.310
PL Y 8.410s 2022-12-19 10:03 TfojaMama69 #6099 1.400,2.316,2.284,2.410
SE N 8.410s 2022-12-19 12:19 deleted user #6100 1.466,2.367,2.267,2.310
IT Y 8.410s 2022-12-19 17:58 Broke #6101 1.400,2.316,2.284,2.410
MK Y 8.410s 2022-12-19 17:59 red dragon #6102 1.450,2.250,2.316,2.394
GR Y 8.410s 2022-12-19 18:47 Argiris Legend #6103 1.416,2.317,2.333,2.344
NO N 8.410s 2022-12-19 21:12 SR Karambit -_- #6104 1.450,2.250,2.316,2.394
SK Y 8.410s 2022-12-20 06:21 SharkLeon12 #6105 1.466,2.317,2.333,2.294
TR N 8.410s 2022-12-20 06:28 lol #6106 1.450,2.316,2.284,2.360
EE Y 8.410s 2022-12-20 08:49 spons1s #6107 1.400,2.316,2.284,2.410
ZA Y 8.410s 2022-12-20 10:22 Guest1234 #6108 1.400,2.316,2.284,2.410
CH N 8.410s 2022-12-20 13:09 ExoDan #6109 1.450,2.250,2.316,2.394
JO Y 8.410s 2022-12-20 21:09 itz_fariss #6110 1.400,2.316,2.284,2.410
SE N 8.410s 2022-12-21 09:03 Joel #6111 1.450,2.316,2.284,2.360
DK N 8.410s 2022-12-21 14:17 Craqzyy #6112 1.450,2.250,2.316,2.394
HU Y 8.410s 2022-12-22 17:33 no_bulli #6113 1.450,2.250,2.316,2.394
CZ N 8.410s 2022-12-24 08:27 MartinekCZEK #6114 1.400,2.316,2.284,2.410
NO N 8.410s 2022-12-24 09:04 Mathiasninja09 #6115 1.450,2.250,2.316,2.394
ES Y 8.410s 2022-12-24 19:49 Victor7799 #6116 1.450,2.316,2.284,2.360
IT N 8.410s 2022-12-24 21:13 AFBILMITICO30 #6117 1.383,2.367,2.333,2.327
PL N 8.410s 2022-12-25 06:50 Guest8786 #6118 1.400,2.316,2.284,2.410
SE Y 8.410s 2022-12-26 11:12 Exo_ Purpe #6119 1.416,2.367,2.300,2.327
SE N 8.410s 2022-12-26 15:25 Siramplays #6120 1.450,2.316,2.284,2.360
NO N 8.410s 2022-12-26 15:50 Guest4771 #6121 1.433,2.367,2.266,2.344
ES Y 8.410s 2022-12-27 12:45 cyberizan #6122 1.450,2.250,2.316,2.394
GR N 8.410s 2022-12-28 10:10 giannokefalo #6123 1.383,2.317,2.300,2.410
FR N 8.410s 2023-01-04 01:24 XxDresseurDeTig #6124 1.383,2.333,2.384,2.310
US Y 8.410s 2023-01-04 02:33 pyro #6125 1.466,2.317,2.333,2.294
IL N 8.410s 2023-01-31 07:26 brozo #6126 1.383,2.400,2.283,2.344
LV Y 8.410s 2023-01-31 17:38 gurkitis #6127 1.466,2.317,2.333,2.294
ES N 8.410s 2023-01-31 20:24 Dario-23 #6128 1.350,2.350,2.316,2.394
US N 8.410s 2023-01-31 22:16 Mj #6129 1.450,2.366,2.267,2.327
BE N 8.410s 2023-02-01 17:25 Kronar010 #6130 1.450,2.316,2.284,2.360
MD N 8.410s 2023-02-01 17:33 Andreea #6131 1.350,2.350,2.350,2.360
SE N 8.410s 2023-02-01 18:13 Barbiekuk #6132 1.466,2.367,2.267,2.310
US Y 8.410s 2023-02-04 01:29 Landon #6133 1.450,2.316,2.284,2.360
GB N 8.410s 2023-02-05 22:41 Alt #6134 1.450,2.250,2.316,2.394
CA N 8.410s 2023-02-06 08:50 AvexxBTW #6135 1.450,2.250,2.316,2.394
CO Y 8.410s 2023-02-07 12:47 N00bHero803 #6136 1.416,2.417,2.267,2.310
GB N 8.410s 2023-02-08 11:36 B4K12G00D #6137 1.450,2.250,2.316,2.394
US N 8.410s 2023-02-09 18:40 Quizzler #6138 1.400,2.316,2.284,2.410
FI N 8.410s 2023-02-10 08:05 Levutin #6139 1.450,2.316,2.350,2.294
RU Y 8.410s 2023-02-11 05:27 Millaryy #6140 1.450,2.316,2.350,2.294
NL N 8.410s 2023-02-14 11:01 robloxgirl #6141 1.450,2.316,2.284,2.360
KR N 8.410s 2023-02-15 04:55 HtMgB_ #6142 1.450,2.316,2.284,2.360
US N 8.410s 2023-02-19 00:52 LION #6143 1.466,2.317,2.333,2.294
US N 8.410s 2023-02-23 06:30 deleted user #6144 1.450,2.316,2.284,2.360
RS N 8.410s 2023-03-06 22:11 borismitic09 #6145 1.383,2.333,2.284,2.410
US N 8.410s 2023-03-28 20:44 Champion0990 #6146 1.450,2.316,2.284,2.360
AU N 8.410s 2023-04-06 05:19 ozthegreat #6147 1.350,2.350,2.350,2.360
GB N 8.410s 2023-04-06 11:55 The_GOAT #6148 1.383,2.333,2.334,2.360
US N 8.410s 2023-04-12 15:45 Guest6216 #6149 1.466,2.317,2.333,2.294
US N 8.410s 2023-04-26 02:12 Guest8722 #6150 1.383,2.350,2.333,2.344
GB N 8.410s 2023-04-26 14:51 AJ #6151 1.466,2.317,2.333,2.294
TR Y 8.410s 2023-05-06 16:46 Drsami #6152 1.450,2.316,2.284,2.360
CZ N 8.410s 2023-05-10 09:46 FISHAO9 #6153 1.450,2.316,2.284,2.360
CA Y 8.410s 2023-05-17 01:06 LTcitrus #6154 1.450,2.316,2.284,2.360
DE N 8.410s 2023-05-17 09:47 KermitTheFrog #6155 1.350,2.366,2.367,2.327
CA N 8.410s 2023-05-17 22:34 eleven #6156 1.466,2.317,2.333,2.294
NL Y 8.410s 2023-05-19 10:45 PapaTycho #6157 1.450,2.250,2.316,2.394
RO N 8.410s 2023-05-24 11:40 bot 3 #6158 1.450,2.316,2.284,2.360
KR N 8.410s 2023-06-08 01:58 Adonai #6159 1.466,2.250,2.350,2.344
FR N 8.410s 2023-06-08 10:20 wMartin_ #6160 1.416,2.317,2.333,2.344
SK N 8.410s 2023-06-09 18:07 tadeas #6161 1.400,2.416,2.234,2.360
NL N 8.410s 2023-06-10 17:20 AppelSticker #6162 1.450,2.250,2.316,2.394
GB N 8.410s 2023-06-14 17:43 jcbp #6163 1.450,2.316,2.284,2.360
AT Y 8.410s 2023-06-17 09:57 Blaze #6164 1.466,2.317,2.333,2.294
SE Y 8.410s 2023-06-19 09:26 GuFFe #6165 1.450,2.383,2.267,2.310
FR N 8.410s 2023-06-23 10:02 Neimad37 #6166 1.416,2.317,2.333,2.344
NO N 8.410s 2023-06-23 11:40 Vaskebjorn #6167 1.383,2.333,2.334,2.360
GB N 8.410s 2023-06-23 19:34 Guest2351 #6168 1.416,2.367,2.300,2.327
US N 8.410s 2023-06-23 20:32 MooseOnMyRink #6169 1.450,2.250,2.316,2.394
US Y 8.410s 2023-06-24 13:12 ItzFroasty #6170 1.350,2.316,2.367,2.377
RO Y 8.410s 2023-07-01 13:50 Slippy Pengu #6171 1.450,2.316,2.284,2.360
US Y 8.410s 2023-07-04 00:43 تღ〠 #6172 1.466,2.300,2.334,2.310
CA Y 8.410s 2023-07-06 02:18 Smalldragon7 #6173 1.416,2.300,2.384,2.310
BE Y 8.410s 2023-07-07 11:30 zombie-playz09 #6174 1.400,2.316,2.284,2.410
UA Y 8.410s 2023-07-09 22:27 Harryson #6175 1.416,2.367,2.300,2.327
DE N 8.410s 2023-07-25 12:21 CGB Bisafy #6176 1.433,2.383,2.284,2.310
US Y 8.410s 2023-08-06 12:00 Oh999 #6177 1.416,2.367,2.300,2.327
NL N 8.410s 2023-08-13 12:16 uppie w #6178 1.450,2.316,2.284,2.360
US N 8.410s 2023-08-16 20:50 pxioim #6179 1.350,2.366,2.367,2.327
CH N 8.410s 2023-08-19 20:38 Alxn22 #6180 1.383,2.317,2.366,2.344
US Y 8.410s 2023-08-20 23:44 Kuroko #6181 1.350,2.300,2.383,2.377
AU Y 8.410s 2023-09-02 13:09 nicholas #6182 1.383,2.367,2.333,2.327
US Y 8.410s 2023-09-03 03:16 hamsandwhich #6183 1.450,2.383,2.267,2.310
EG N 8.410s 2023-09-04 08:55 Galaxy #6184 1.400,2.366,2.267,2.377
NO Y 8.410s 2023-09-12 08:59 deleted user #6185 1.350,2.350,2.350,2.360
SK N 8.410s 2023-09-18 18:52 0bs1d washed #6186 1.466,2.317,2.333,2.294
PL N 8.410s 2023-09-21 09:11 SnowyVANISH #6187 1.466,2.317,2.333,2.294
DE Y 8.410s 2023-09-26 20:43 end41r #6188 1.466,2.317,2.333,2.294
NO N 8.410s 2023-09-27 20:27 Guest4656 #6189 1.450,2.316,2.284,2.360
PL N 8.410s 2023-10-01 16:10 hese4c #6190 1.450,2.316,2.284,2.360
SE N 8.410s 2023-10-03 14:45 X-mace #6191 1.433,2.333,2.300,2.344
NO N 8.410s 2023-10-05 12:00 slayallday #6192 1.416,2.367,2.300,2.327
CA N 8.410s 2023-10-05 17:32 Idontlikemen #6193 1.450,2.316,2.284,2.360
US N 8.410s 2023-10-07 08:41 Dark #6194 1.450,2.316,2.284,2.360
US N 8.410s 2023-10-07 13:46 Vxnillaz #6195 1.450,2.333,2.333,2.294
BR N 8.410s 2023-10-10 19:53 Presente #6196 1.383,2.317,2.333,2.377
DE N 8.410s 2023-10-10 20:55 MasterMarvin #6197 1.350,2.350,2.350,2.360
FR N 8.410s 2023-10-14 07:36 Enzoo #6198 1.400,2.316,2.284,2.410
SE N 8.410s 2023-10-14 19:41 Bby Jasmin #6199 1.416,2.367,2.300,2.327
GB Y 8.410s 2023-10-20 20:05 howaboutsomefun #6200 1.416,2.317,2.333,2.344
CH N 8.410s 2023-10-25 15:13 Erazor #6201 1.466,2.317,2.333,2.294
BE Y 8.410s 2023-10-28 18:54 achketchup2 #6202 1.466,2.367,2.267,2.310
CZ Y 8.410s 2023-11-05 15:06 Foxik17cz #6203 1.433,2.350,2.333,2.294
IT N 8.410s 2023-11-07 10:47 GMMANO #6204 1.450,2.316,2.284,2.360
CZ N 8.410s 2023-11-10 07:35 Majsner #6205 1.450,2.250,2.316,2.394
NL N 8.410s 2023-11-13 10:09 Mehmet #6206 1.450,2.333,2.333,2.294
CA N 8.410s 2023-11-17 17:26 Frangle #6207 1.450,2.250,2.316,2.394
CA Y 8.410s 2023-11-20 06:45 Dillius #6208 1.400,2.316,2.350,2.344
PL N 8.410s 2023-11-25 11:09 Piesel111111111 #6209 1.450,2.250,2.316,2.394
BE Y 8.410s 2023-11-28 15:29 AtavisticRider4 #6210 1.350,2.366,2.384,2.310
IT N 8.410s 2023-11-30 14:14 Mico31 #6211 1.450,2.250,2.316,2.394
AR N 8.410s 2023-12-03 19:52 Ansister En Yt #6212 1.383,2.350,2.333,2.344
DE Y 8.410s 2023-12-04 14:22 Lmouam #6213 1.400,2.316,2.284,2.410
US N 8.410s 2023-12-05 03:30 deleted user #6214 1.450,2.316,2.284,2.360
US N 8.410s 2023-12-06 17:50 GhoulishScandal #6215 1.416,2.317,2.333,2.344
US N 8.410s 2023-12-17 12:52 Gina #6216 1.416,2.317,2.333,2.344
US N 8.410s 2023-12-17 20:34 Guest1657 #6217 1.416,2.300,2.384,2.310
BR N 8.410s 2023-12-17 21:35 ImportunateBrow #6218 1.466,2.317,2.333,2.294
AU N 8.410s 2023-12-29 10:30 deleted user #6219 1.450,2.316,2.284,2.360
CZ N 8.410s 2024-01-01 09:53 itsMog #6220 1.433,2.350,2.333,2.294
KZ N 8.410s 2024-01-04 13:49 nurs #6221 1.416,2.300,2.384,2.310
PL Y 8.410s 2024-01-10 12:35 Owca #6222 1.433,2.300,2.367,2.310
GB N 8.410s 2024-01-16 00:31 Cal #6223 1.466,2.367,2.267,2.310
AU Y 8.410s 2024-01-19 15:10 Kronix #6224 1.450,2.250,2.316,2.394
PL N 8.410s 2024-01-22 09:58 jack #6225 1.466,2.317,2.333,2.294
US N 8.410s 2024-01-24 22:40 Progamer11 #6226 1.450,2.316,2.284,2.360
DE N 8.410s 2024-01-27 13:10 MeMeMan3578 #6227 1.383,2.367,2.333,2.327
RU N 8.410s 2024-01-31 04:52 GratefulWillow5 #6228 1.450,2.316,2.284,2.360
FR Y 8.410s 2024-02-08 23:49 Bretzel God #6229 1.366,2.350,2.334,2.360
US Y 8.410s 2024-02-10 06:04 Phloip #6230 1.466,2.367,2.267,2.310
JP N 8.410s 2024-02-10 08:26 Guest2967 #6231 1.466,2.317,2.333,2.294
SA Y 8.410s 2024-02-13 13:18 Noni #6232 1.350,2.366,2.367,2.327
DE Y 8.410s 2024-02-14 09:36 Laltlech #6233 1.450,2.383,2.267,2.310
GB N 8.410s 2024-02-18 10:27 777Vortex #6234 1.400,2.316,2.284,2.410
CA Y 8.410s 2024-02-18 21:56 BOBBOBBY #6235 1.450,2.316,2.284,2.360
US Y 8.410s 2024-02-22 01:40 MechanizedJelly #6236 1.350,2.366,2.334,2.360
PL Y 8.410s 2024-03-06 08:37 jumpik3run #6237 1.366,2.350,2.367,2.327
US N 8.410s 2024-03-17 15:41 IsaacFandunks #6238 1.450,2.316,2.284,2.360
HU Y 8.410s 2024-03-19 06:45 Guest2556 #6239 1.450,2.316,2.284,2.360
GB N 8.410s 2024-03-23 14:56 IllogicalEvenin #6240 1.400,2.316,2.284,2.410
BR N 8.410s 2024-03-24 20:29 Deman1248 #6241 1.433,2.400,2.267,2.310
PL Y 8.410s 2024-03-31 10:04 informatyka #6242 1.350,2.350,2.383,2.327
SE N 8.410s 2024-04-01 07:58 Mr_Saduce #6243 1.450,2.250,2.316,2.394
JO Y 8.410s 2024-04-13 05:01 eudaimonia #6244 1.466,2.317,2.333,2.294
VN N 8.410s 2024-04-13 18:48 Guest4276 #6245 1.433,2.400,2.267,2.310
NL N 8.410s 2024-04-21 12:47 DizzyRingmaster #6246 1.466,2.367,2.267,2.310
US N 8.410s 2024-04-29 00:50 BDenz #6247 1.450,2.316,2.284,2.360
GB N 8.410s 2024-05-04 16:03 what #6248 1.400,2.316,2.284,2.410
BE Y 8.410s 2024-05-07 20:48 Clemboncelles #6249 1.433,2.317,2.300,2.360
CA N 8.410s 2024-05-18 03:02 YYYYYYYYYYYYYYY #6250 1.350,2.350,2.350,2.360
BE N 8.410s 2024-05-24 12:27 void #6251 1.400,2.366,2.317,2.327
NL N 8.410s 2024-05-26 10:57 Zeekomkommer20 #6252 1.466,2.317,2.333,2.294
NL N 8.410s 2024-05-30 20:01 Guest9776 #6253 1.433,2.350,2.333,2.294
IL N 8.410s 2024-06-05 11:20 Zeus Amit #6254 1.450,2.250,2.316,2.394
SE N 8.410s 2024-06-08 15:52 TAGE #6255 1.450,2.316,2.284,2.360
GN N 8.410s 2024-06-13 18:17 Noob #6256 1.400,2.333,2.333,2.344
IT N 8.410s 2024-06-20 09:49 Ruojab #6257 1.400,2.316,2.350,2.344
DE N 8.410s 2024-06-21 17:55 afolfus1 #6258 1.400,2.300,2.400,2.310
US N 8.410s 2024-07-11 14:33 Ari Young #6259 1.466,2.317,2.333,2.294
US N 8.410s 2024-08-01 02:37 𝓦𝓗𝓞𝓞𝓣𝓨 #6260 1.466,2.317,2.333,2.294
FR Y 8.410s 2024-08-07 10:16 Nyls🌄 #6261 1.350,2.383,2.333,2.344
PL N 8.410s 2024-08-07 16:14 mimus #6262 1.450,2.250,2.316,2.394
RO N 8.410s 2024-08-08 21:56 Guest8930 #6263 1.466,2.317,2.333,2.294
LU Y 8.410s 2024-08-10 19:52 なたTiglenさか🌍 #6264 1.450,2.250,2.316,2.394
GB N 8.410s 2024-09-07 19:46 Rollington #6265 1.450,2.316,2.284,2.360
AU N 8.410s 2024-09-08 21:03 Buzzpopp #6266 1.366,2.350,2.400,2.294
GB N 8.410s 2024-09-13 11:11 NefBlob #6267 1.400,2.316,2.284,2.410
NL N 8.410s 2024-10-02 10:48 Sam Paardenkooper #6268 1.433,2.350,2.333,2.294
PL N 8.410s 2024-10-15 14:43 Vex0Oo #6269 1.450,2.366,2.267,2.327
SK N 8.410s 2024-10-18 17:56 Guest8189 #6270 1.400,2.366,2.300,2.344
US N 8.410s 2024-11-22 23:10 CrunchyRunner99 #6271 1.450,2.250,2.316,2.394
IT N 8.410s 2024-11-25 23:23 exoking #6272 1.450,2.316,2.284,2.360
IT N 8.410s 2024-11-27 19:38 Guest1631 #6273 1.383,2.317,2.333,2.377
GB N 8.410s 2025-02-02 02:03 FluidConjecture #6274 1.433,2.350,2.333,2.294
DK N 8.410s 2025-03-12 08:56 Scrapper #6275 1.450,2.316,2.284,2.360
US N 8.410s 2025-03-18 18:40 Noah #6276 1.400,2.366,2.300,2.344
US N 8.410s 2025-03-25 19:53 hi im smurfdih i quit #6277 1.466,2.317,2.333,2.294
BE N 8.410s 2025-04-22 13:34 kasper #6278 1.450,2.250,2.316,2.394
DE N 8.410s 2025-04-27 16:42 Flexr #6279 1.350,2.350,2.350,2.360
CA N 8.410s 2025-05-13 00:51 Glashorse #6280 1.450,2.316,2.350,2.294
ES N 8.410s 2025-05-17 13:06 superantolin #6281 1.466,2.250,2.367,2.327
US N 8.410s 2025-06-07 07:50 Twixtor #6282 1.350,2.316,2.434,2.310
RU N 8.410s 2025-06-30 22:08 pawtism #6283 1.416,2.317,2.333,2.344
US N 8.410s 2025-08-26 22:52 ultrogmr #6284 1.450,2.316,2.284,2.360
US N 8.410s 2025-08-27 01:50 dark #6285 1.450,2.316,2.284,2.360
JP N 8.410s 2025-09-30 14:35 3.14PC #6286 1.466,2.317,2.333,2.294
JP N 8.410s 2025-10-07 05:16 :itsa412: #6287 1.450,2.250,2.316,2.394
LT N 8.410s 2025-12-31 11:46 FarthestCamel20 #6288 1.383,2.317,2.283,2.427
BE N 8.410s 2026-01-03 19:40 Crinatiraxx #6289 1.400,2.316,2.284,2.410
RO N 8.410s 2026-01-05 18:27 jt #6290 1.450,2.250,2.316,2.394
US Y 8.410s 2026-01-12 01:40 ozner #6291 1.450,2.250,2.316,2.394
US Y 8.410s 2026-01-16 18:20 him frfr #6292 1.416,2.317,2.333,2.344
SI Y 8.410s 2026-01-26 07:34 PurpleIdol56142 #6293 1.416,2.367,2.300,2.327
DK N 8.410s 2026-01-27 14:39 Hurtige satan #6294 1.450,2.250,2.350,2.360
SG N 8.410s 2026-01-30 16:25 Mustafa™ #6295 1.450,2.316,2.284,2.360
PL Y 8.410s 2026-02-05 12:04 Guest4538 #6296 1.450,2.250,2.316,2.394
BE N 8.410s 2026-02-07 10:38 Casman89 #6297 1.450,2.250,2.316,2.394
CA Y 8.410s 2026-02-09 03:06 Spikky boi #6298 1.383,2.333,2.284,2.410
DE Y 8.410s 2026-02-12 17:25 Tanjro582 #6299 1.466,2.317,2.333,2.294
DE N 8.410s 2026-02-16 04:07 Guest9498 #6300 1.450,2.316,2.350,2.294
UA Y 8.410s 2026-02-21 14:49 SobakeN35225 #6301 1.450,2.316,2.284,2.360
JP N 8.410s 2026-02-23 04:46 Chawanmushi #6302 1.450,2.250,2.316,2.394
BG Y 8.410s 2026-02-24 12:02 Lambo4k0 #6303 1.383,2.350,2.333,2.344
ES N 8.410s 2026-02-25 20:53 Dreast #6304 1.466,2.317,2.333,2.294
NL N 8.410s 2026-03-08 16:01 Marius3264 #6305 1.400,2.316,2.284,2.410
NZ Y 8.410s 2026-03-08 22:48 TinkTank276 #6306 1.433,2.350,2.333,2.294
US N 8.410s 2026-03-10 20:37 Player4050 #6307 1.466,2.317,2.333,2.294
US Y 8.410s 2026-03-11 17:07 Bobelless #6308 1.383,2.317,2.350,2.360
DE N 8.410s 2026-03-12 19:16 Nexar #6309 1.350,2.350,2.366,2.344
BE N 8.410s 2026-03-19 20:06 peterpumpkineater67 #6310 1.383,2.383,2.334,2.310
PL Y 8.410s 2026-03-20 16:53 Vicky #6311 1.450,2.333,2.333,2.294
AU N 8.410s 2026-03-21 06:26 Jazza #6312 1.383,2.333,2.350,2.344
BE N 8.410s 2026-03-25 11:27 peterpumpkineater66 #6313 1.416,2.317,2.333,2.344
US Y 8.410s 2026-03-29 03:26 Guest1749 #6314 1.450,2.250,2.316,2.394
NL Y 8.410s 2026-04-10 10:00 Darkfire 001 #6315 1.416,2.367,2.300,2.327
GB N 8.410s 2026-04-19 10:52 sp3x0o #6316 1.400,2.316,2.284,2.410
FR Y 8.410s 2026-04-21 09:59 UninformedHire67 #6317 1.400,2.383,2.300,2.327
US N 8.410s 2026-04-22 17:29 hemm #6318 1.450,2.316,2.284,2.360
TR Y 8.410s 2026-04-23 12:13 ZaCrone #6319 1.466,2.317,2.333,2.294
HR N 8.410s 2026-04-28 14:11 debeladegencina #6320 1.383,2.317,2.300,2.410
IT N 8.410s 2026-04-30 19:52 DtotheSide72 #6321 1.450,2.250,2.316,2.394
PL N 8.410s 2026-05-03 23:54 Twoj stary cpun #6322 1.350,2.316,2.434,2.310
US Y 8.410s 2026-05-04 15:33 Scrotus #6323 1.416,2.367,2.300,2.327
RU Y 8.410s 2026-05-04 16:37 Guest5573 #6324 1.466,2.367,2.267,2.310
JP N 8.410s 2026-05-05 07:52 Ippanjinman #6325 1.400,2.316,2.284,2.410
BE Y 8.411s 2022-07-04 13:12 Sharky #6326 1.350,2.350,2.350,2.361
US Y 8.411s 2022-12-07 03:35 SP33D #6327 1.416,2.367,2.267,2.361
RO N 8.411s 2022-12-07 06:54 Manu02 #6328 1.416,2.300,2.334,2.361
AT Y 8.411s 2022-12-08 11:27 Leo #6329 1.383,2.350,2.333,2.345
PL Y 8.411s 2022-12-08 12:54 Kamciooo135 #6330 1.350,2.416,2.334,2.311
LB Y 8.411s 2022-12-08 20:00 youssefatab #6331 1.516,2.250,2.317,2.328
ZA N 8.411s 2022-12-09 09:22 HollowExasperat #6332 1.400,2.383,2.267,2.361
RO Y 8.411s 2022-12-09 10:02 Guest6415 #6333 1.383,2.367,2.400,2.261
RS N 8.411s 2022-12-10 21:11 Mihailo #6334 1.516,2.250,2.317,2.328
CZ N 8.411s 2022-12-12 11:47 VojtaPadijetk #6335 1.383,2.350,2.333,2.345
SA Y 8.411s 2022-12-12 17:05 M7 morteth #6336 1.416,2.300,2.334,2.361
UM N 8.411s 2022-12-12 19:05 wwrak44 #6337 1.383,2.367,2.300,2.361
JM Y 8.411s 2022-12-12 23:19 Zach #6338 1.466,2.250,2.384,2.311
DK Y 8.411s 2022-12-13 12:36 Ok #6339 1.366,2.350,2.334,2.361
CH Y 8.411s 2022-12-15 09:07 Smooth__Genius #6340 1.383,2.367,2.300,2.361
JP Y 8.411s 2022-12-17 22:51 Guest3941 #6341 1.350,2.383,2.333,2.345
BE N 8.411s 2022-12-18 18:26 Finn #6342 1.466,2.250,2.384,2.311
LV Y 8.411s 2022-12-19 12:38 shoki_5 #6343 1.416,2.367,2.267,2.361
RO Y 8.411s 2022-12-22 18:18 Duk1 #6344 1.516,2.250,2.317,2.328
NO Y 8.411s 2022-12-22 18:27 Daniel #6345 1.466,2.250,2.384,2.311
BE Y 8.411s 2022-12-26 09:35 wabb #6346 1.383,2.317,2.350,2.361
NZ Y 8.411s 2022-12-26 22:36 frix #6347 1.383,2.367,2.283,2.378
DE Y 8.411s 2023-01-31 21:58 wettowel24 #6348 1.366,2.350,2.334,2.361
CA N 8.411s 2023-02-04 01:26 deleted user #6349 1.350,2.350,2.350,2.361
CA Y 8.411s 2023-02-06 22:28 It'sCaptain #6350 1.416,2.367,2.367,2.261
CG N 8.411s 2023-02-11 09:47 Guest5006 #6351 1.350,2.300,2.400,2.361
IT N 8.411s 2023-02-11 19:28 Xxk6496xX #6352 1.383,2.367,2.333,2.328
NL N 8.411s 2023-02-13 18:03 nickracer8 #6353 1.466,2.250,2.384,2.311
FR N 8.411s 2023-02-25 10:34 ScarHFace #6354 1.383,2.367,2.300,2.361
TR N 8.411s 2023-02-25 17:52 Matiz #6355 1.400,2.383,2.267,2.361
RU N 8.411s 2023-03-03 11:18 romeeeka #6356 1.516,2.250,2.317,2.328
CA N 8.411s 2023-04-07 15:37 Tacopredator #6357 1.383,2.400,2.267,2.361
NL N 8.411s 2023-04-12 16:45 deleted user #6358 1.433,2.317,2.283,2.378
FR N 8.411s 2023-04-27 18:37 Rania #6359 1.450,2.266,2.384,2.311
GB N 8.411s 2023-04-30 11:17 B_e_r_t_i_e #6360 1.466,2.250,2.384,2.311
US N 8.411s 2023-05-07 18:51 TacoBellWiki #6361 1.516,2.250,2.317,2.328
LU N 8.411s 2023-05-14 12:30 Sebada2727 #6362 1.350,2.350,2.350,2.361
FR N 8.411s 2023-05-20 15:58 panda #6363 1.416,2.350,2.334,2.311
CH N 8.411s 2023-06-12 02:18 buddy #6364 1.383,2.350,2.333,2.345
GB N 8.411s 2023-06-17 18:31 IzzyPlayz #6365 1.516,2.250,2.317,2.328
IL N 8.411s 2023-07-01 09:51 Rotem #6366 1.416,2.367,2.267,2.361
ES N 8.411s 2023-07-01 13:30 Hoopax28 #6367 1.350,2.350,2.366,2.345
GB N 8.411s 2023-07-08 13:35 RafiK #6368 1.400,2.366,2.367,2.278
FR N 8.411s 2023-07-21 09:22 Guest5176 #6369 1.466,2.250,2.384,2.311
SE Y 8.411s 2023-07-21 19:17 strx #6370 1.350,2.333,2.333,2.395
GB N 8.411s 2023-07-29 15:03 joe the goose #6371 1.383,2.367,2.266,2.395
BG Y 8.411s 2023-08-01 08:19 X7Pigovniaa #6372 1.383,2.350,2.333,2.345
NL N 8.411s 2023-08-01 18:12 mikelike03 #6373 1.516,2.250,2.317,2.328
GB Y 8.411s 2023-08-01 19:37 Quuify #6374 1.450,2.316,2.317,2.328
AT Y 8.411s 2023-08-05 12:59 Da Gock69 #6375 1.350,2.350,2.333,2.378
BA N 8.411s 2023-08-05 17:34 ERL Nick #6376 1.400,2.366,2.367,2.278
US N 8.411s 2023-08-05 18:42 Hello #6377 1.383,2.350,2.333,2.345
DE N 8.411s 2023-08-05 19:43 Vinzomat #6378 1.350,2.350,2.350,2.361
SE Y 8.411s 2023-08-08 12:42 OliBoli69 #6379 1.466,2.250,2.384,2.311
BE N 8.411s 2023-08-10 10:20 KiLLx #6380 1.516,2.250,2.317,2.328
US N 8.411s 2023-08-11 03:44 Spex #6381 1.400,2.383,2.367,2.261
US Y 8.411s 2023-08-12 22:33 shadow #6382 1.416,2.300,2.334,2.361
AU Y 8.411s 2023-08-26 00:26 zoopydooper #6383 1.383,2.350,2.333,2.345
US N 8.411s 2023-09-01 14:40 CreamyChocolate #6384 1.383,2.367,2.266,2.395
GB N 8.411s 2023-09-02 10:45 Chicken boi #6385 1.516,2.250,2.317,2.328
PL N 8.411s 2023-09-02 12:28 ChunkyChunkHunk #6386 1.466,2.250,2.384,2.311
BG Y 8.411s 2023-09-04 19:39 Azsumtoi #6387 1.350,2.366,2.334,2.361
IL Y 8.411s 2023-09-07 18:36 Thefatcow #6388 1.416,2.367,2.267,2.361
DK N 8.411s 2023-09-13 15:55 Guest7800 #6389 1.383,2.367,2.283,2.378
NO N 8.411s 2023-10-10 15:19 NotAnAltAccount #6390 1.416,2.300,2.334,2.361
CA N 8.411s 2023-10-13 22:07 Redfoxed #6391 1.383,2.400,2.267,2.361
CZ N 8.411s 2023-10-14 11:02 stoky020 #6392 1.516,2.250,2.317,2.328
GB N 8.411s 2023-10-17 10:01 deleted user #6393 1.350,2.366,2.350,2.345
US Y 8.411s 2023-10-20 22:57 shark #6394 1.350,2.350,2.333,2.378
FR N 8.411s 2023-10-27 00:03 Psek0 #6395 1.416,2.367,2.367,2.261
BR Y 8.411s 2023-11-02 14:00 imbetterthanuu #6396 1.350,2.350,2.366,2.345
IE N 8.411s 2023-11-12 13:37 Guest2119 #6397 1.416,2.367,2.267,2.361
AR Y 8.411s 2023-11-23 12:41 G8nzal8 #6398 1.466,2.250,2.384,2.311
FR Y 8.411s 2023-12-06 12:59 Arlilepro #6399 1.350,2.366,2.334,2.361
US N 8.411s 2023-12-06 18:05 Evan Caldwell #6400 1.383,2.350,2.333,2.345
FR Y 8.411s 2023-12-12 20:32 Bob #6401 1.416,2.300,2.334,2.361
US Y 8.411s 2024-01-09 01:46 Cnteukrds #6402 1.516,2.250,2.317,2.328
RS N 8.411s 2024-01-22 19:18 JohnBeast38 #6403 1.350,2.350,2.350,2.361
AU Y 8.411s 2024-02-03 03:56 Phxer #6404 1.383,2.367,2.366,2.295
RO N 8.411s 2024-02-09 08:33 FieryWeirdo5324 #6405 1.466,2.250,2.384,2.311
DK Y 8.411s 2024-02-10 13:51 Johannes #6406 1.516,2.250,2.317,2.328
IL N 8.411s 2024-02-13 07:47 Speedrunner #6407 1.350,2.300,2.333,2.428
US Y 8.411s 2024-02-14 15:20 BombBallz #6408 1.416,2.367,2.267,2.361
CA N 8.411s 2024-02-26 17:14 Sethie #6409 1.416,2.350,2.334,2.311
US Y 8.411s 2024-03-06 13:52 Meeeklos #6410 1.383,2.367,2.300,2.361
US N 8.411s 2024-03-09 23:56 caolina00 #6411 1.383,2.350,2.333,2.345
AU N 8.411s 2024-03-10 05:28 Guest7544 #6412 1.416,2.367,2.367,2.261
RU Y 8.411s 2024-03-11 07:36 popi #6413 1.366,2.350,2.300,2.395
IT N 8.411s 2024-03-14 22:47 Warren_2919 #6414 1.400,2.366,2.284,2.361
IS Y 8.411s 2024-04-11 10:29 Poopman #6415 1.416,2.367,2.267,2.361
GB N 8.411s 2024-04-17 15:19 Iberjib #6416 1.416,2.367,2.267,2.361
BR Y 8.411s 2024-04-30 22:43 PuzzleSerpent #6417 1.350,2.383,2.333,2.345
PL Y 8.411s 2024-05-16 20:42 Zdychaj76 #6418 1.450,2.250,2.400,2.311
CA N 8.411s 2024-05-31 22:53 RuntyJock913 #6419 1.383,2.383,2.267,2.378
CA N 8.411s 2024-06-09 17:47 VxPs15Z #6420 1.466,2.250,2.384,2.311
DE N 8.411s 2024-06-12 20:36 Jopro066 #6421 1.400,2.366,2.334,2.311
US N 8.411s 2024-06-14 15:03 Guest3927 #6422 1.450,2.316,2.317,2.328
SE N 8.411s 2024-06-17 16:46 samot! #6423 1.400,2.383,2.267,2.361
BE N 8.411s 2024-06-20 15:17 Casporion999 #6424 1.466,2.250,2.384,2.311
DE N 8.411s 2024-06-22 14:27 Chosen one #6425 1.416,2.350,2.334,2.311
CA N 8.411s 2024-07-08 16:45 Guest4431 #6426 1.416,2.367,2.267,2.361
DE N 8.411s 2024-07-19 11:54 LordOfHobbits20 #6427 1.383,2.383,2.267,2.378
SK N 8.411s 2024-07-27 10:14 M1nx_ #6428 1.466,2.250,2.317,2.378
SE N 8.411s 2024-08-04 13:33 The Shitter #6429 1.350,2.350,2.333,2.378
DK Y 8.411s 2024-08-10 12:17 Gifler #6430 1.416,2.367,2.267,2.361
ES Y 8.411s 2024-08-14 21:50 DarkRex #6431 1.350,2.350,2.350,2.361
AU N 8.411s 2024-08-16 04:34 Kman #6432 1.466,2.250,2.384,2.311
NL N 8.411s 2024-10-02 05:57 Guest9153 #6433 1.383,2.400,2.367,2.261
CA N 8.411s 2025-03-05 23:10 𝙛𝙞𝙣𝙯𝙯𝙞 #6434 1.466,2.250,2.384,2.311
US Y 8.411s 2025-04-18 22:00 DottedCalculator #6435 1.450,2.250,2.383,2.328
IL N 8.411s 2025-05-07 11:31 neilvi #6436 1.383,2.367,2.266,2.395
ME Y 8.411s 2025-12-19 16:06 Guest6004 #6437 1.466,2.250,2.384,2.311
IE Y 8.411s 2026-01-10 17:16 ESavage #6438 1.383,2.367,2.366,2.295
FR N 8.411s 2026-01-12 11:13 Natnite #6439 1.416,2.367,2.367,2.261
US N 8.411s 2026-01-28 23:23 sharkofocean #6440 1.400,2.383,2.367,2.261
US N 8.411s 2026-02-09 00:13 lwkHimz #6441 1.383,2.383,2.367,2.278
ES N 8.411s 2026-02-17 20:45 Vicpo #6442 1.383,2.367,2.400,2.261
PL Y 8.411s 2026-03-10 19:05 Luxify #6443 1.416,2.367,2.367,2.261
BE Y 8.411s 2026-03-31 09:34 Cobra #6444 1.383,2.350,2.333,2.345
NO N 8.411s 2026-05-03 10:59 Monkey1ER #6445 1.516,2.250,2.317,2.328
FR N 8.411s 2026-05-04 17:02 Gab426 #6446 1.350,2.366,2.334,2.361
AT N 8.423s 2022-12-09 06:34 Guest1420 #6447 1.433,2.283,2.400,2.307
HR Y 8.423s 2022-12-11 13:50 Guest2328 #6448 1.416,2.300,2.367,2.340
SE Y 8.423s 2023-01-31 13:31 Siggo #6449 1.416,2.334,2.300,2.373
US N 8.423s 2023-12-07 15:57 Cale #6450 1.433,2.283,2.400,2.307
CA Y 8.424s 2022-09-08 07:51 Bailey22 #6451 1.350,2.316,2.434,2.324
GR N 8.424s 2022-12-08 18:05 Samouelpr #6452 1.350,2.300,2.383,2.391
FI Y 8.424s 2022-12-09 15:46 floutastic #6453 1.350,2.333,2.383,2.358
BG Y 8.424s 2022-12-11 11:32 Dark8da1 #6454 1.416,2.300,2.384,2.324
RO Y 8.424s 2022-12-18 09:06 ThreeAddress19 #6455 1.416,2.300,2.384,2.324
IT N 8.424s 2023-03-03 06:19 i love dillwill #6456 1.400,2.300,2.383,2.341
LT N 8.424s 2023-05-09 15:21 Redax⛩️ #6457 1.383,2.333,2.384,2.324
PL N 8.424s 2023-06-02 18:51 Rogix #6458 1.416,2.300,2.384,2.324
RO N 8.424s 2023-07-11 10:06 otigae420 #6459 1.416,2.300,2.384,2.324
GB Y 8.424s 2023-09-30 22:55 Oscar1847 #6460 1.350,2.350,2.383,2.341
FR N 8.424s 2023-11-29 18:46 stikenn #6461 1.416,2.300,2.384,2.324
US N 8.424s 2023-12-04 19:58 MFM #6462 1.383,2.300,2.383,2.358
CA Y 8.424s 2024-03-19 12:53 fondler #6463 1.350,2.316,2.417,2.341
CA N 8.424s 2024-04-18 01:24 potatopotahto73 #6464 1.416,2.300,2.384,2.324
FI Y 8.424s 2024-07-13 10:03 Mikaeldazzi #6465 1.400,2.300,2.383,2.341
US Y 8.424s 2026-01-24 04:54 kii #6466 1.416,2.300,2.384,2.324
AU N 8.424s 2026-01-25 05:45 Caleb #6467 1.416,2.300,2.384,2.324
GB N 8.424s 2026-03-23 23:15 Exogem #6468 1.366,2.317,2.383,2.358
FI N 8.425s 2022-12-07 15:59 Mamamake5 #6469 1.450,2.250,2.383,2.342
ES Y 8.425s 2022-12-07 19:49 Hecpro28 #6470 1.400,2.366,2.334,2.325
CZ Y 8.425s 2022-12-10 18:33 Fujimura #6471 1.450,2.250,2.383,2.342
DK N 8.425s 2022-12-17 20:17 Flishbroom #6472 1.466,2.250,2.384,2.325
VC N 8.425s 2023-02-03 23:30 V_0iD #6473 1.383,2.350,2.333,2.359
US Y 8.425s 2023-02-07 18:01 Gustavo Fring #6474 1.466,2.250,2.384,2.325
SK N 8.425s 2023-02-08 18:35 Tigrik5533 #6475 1.400,2.350,2.333,2.342
ES N 8.425s 2023-02-17 10:35 ISigmaVK #6476 1.466,2.250,2.384,2.325
GE N 8.425s 2023-02-20 08:05 gegsona #6477 1.466,2.250,2.384,2.325
FR N 8.425s 2023-03-04 08:59 THAZ_FR #6478 1.466,2.250,2.384,2.325
GB N 8.425s 2023-03-05 21:06 Cheese man #6479 1.450,2.250,2.383,2.342
GB N 8.425s 2023-03-10 17:12 -_-leo-_- #6480 1.466,2.250,2.384,2.325
US N 8.425s 2023-04-06 01:31 Yourmom #6481 1.466,2.250,2.384,2.325
GB N 8.425s 2023-04-22 22:57 Kaycee1405 #6482 1.466,2.250,2.384,2.325
GB N 8.425s 2023-05-06 05:16 ObdurateLimitat #6483 1.450,2.266,2.384,2.325
US N 8.425s 2023-08-27 17:59 Duck Man #6484 1.466,2.250,2.384,2.325
US N 8.425s 2023-09-08 00:55 AxiomaticSystem #6485 1.450,2.250,2.383,2.342
CA N 8.425s 2023-09-20 04:02 IwantCookies84 #6486 1.350,2.350,2.350,2.375
DE N 8.425s 2023-10-10 11:25 Guest1606 #6487 1.466,2.250,2.384,2.325
GB N 8.425s 2023-12-05 21:47 EXO1losum #6488 1.466,2.250,2.384,2.325
JP N 8.425s 2024-01-11 09:12 Reiruma #6489 1.400,2.350,2.333,2.342
SE N 8.425s 2024-03-06 14:35 McBear #6490 1.400,2.350,2.333,2.342
FI N 8.425s 2024-04-17 07:46 Joni23 #6491 1.450,2.266,2.384,2.325
DE Y 8.425s 2024-04-27 23:42 SkinnySkeleton #6492 1.450,2.250,2.400,2.325
GB N 8.425s 2024-05-17 07:19 Bobo #6493 1.450,2.250,2.400,2.325
US N 8.425s 2024-05-20 16:21 XxButtCheekKid #6494 1.383,2.367,2.350,2.325
NL N 8.425s 2024-06-27 17:22 imagine losing #6495 1.466,2.250,2.384,2.325
GB N 8.425s 2024-07-11 21:34 Harvey #6496 1.466,2.250,2.384,2.325
MY N 8.425s 2024-07-14 06:10 Nixxci #6497 1.450,2.250,2.400,2.325
GB N 8.425s 2024-07-27 23:38 Tom Keywood #6498 1.466,2.250,2.384,2.325
JP Y 8.425s 2024-08-15 18:27 Nippleking #6499 1.466,2.250,2.384,2.325
RU N 8.425s 2024-10-03 04:42 маяковский916 #6500 1.350,2.383,2.333,2.359
US N 8.425s 2024-10-07 21:02 Guest1786 #6501 1.450,2.266,2.384,2.325
DE N 8.425s 2025-03-03 23:07 Guest4323 #6502 1.350,2.350,2.400,2.325
SE N 8.425s 2025-04-07 08:56 tha io #6503 1.466,2.250,2.384,2.325
NL Y 8.425s 2025-12-22 09:59 Twan@G #6504 1.466,2.250,2.384,2.325
DK N 8.425s 2025-12-31 20:30 Realrue #6505 1.450,2.250,2.400,2.325
BG N 8.425s 2026-01-03 16:19 𝐋𝐢𝐚𝐦 𝐒𝐩𝐢𝐞𝐠𝐞𝐥 #6506 1.450,2.250,2.383,2.342
HR N 8.425s 2026-01-24 18:37 franko #6507 1.466,2.250,2.384,2.325
HU Y 8.425s 2026-02-03 19:23 TomiA4 #6508 1.416,2.350,2.334,2.325
RO N 8.425s 2026-02-05 14:20 MasterRms #6509 1.466,2.250,2.384,2.325
SE N 8.425s 2026-02-13 21:11 VanillaSandwich #6510 1.450,2.266,2.384,2.325
US N 8.425s 2026-03-23 06:26 Yuh I’m Gumpin It #6511 1.466,2.250,2.384,2.325
NL Y 8.425s 2026-04-07 08:27 JulianP #6512 1.450,2.250,2.400,2.325
BE Y 8.425s 2026-04-10 11:57 NathLeChinoisDeLaCaille #6513 1.466,2.250,2.384,2.325
IL N 8.425s 2026-04-11 09:46 Oz Eshkol #6514 1.450,2.266,2.384,2.325
NZ N 8.425s 2026-04-20 19:43 Guest8079 #6515 1.400,2.350,2.333,2.342
US Y 8.425s 2026-04-21 22:17 Guest3856 #6516 1.450,2.266,2.384,2.325
PL N 8.425s 2026-05-04 06:47 SkinnySpecificity27 #6517 1.450,2.266,2.384,2.325
FR N 8.426s 2022-09-07 07:21 Guest8695 #6518 1.483,2.317,2.333,2.293
LT Y 8.426s 2022-12-07 15:42 14 #6519 1.466,2.317,2.350,2.293
IL N 8.426s 2022-12-09 17:01 Shayy #6520 1.400,2.350,2.383,2.293
GR Y 8.426s 2022-12-10 09:08 agg98 #6521 1.450,2.316,2.334,2.326
PY N 8.426s 2022-12-12 15:49 Vioxtenic #6522 1.483,2.317,2.333,2.293
LB Y 8.426s 2022-12-14 17:16 IceBibiY7 #6523 1.483,2.317,2.333,2.293
ES Y 8.426s 2022-12-27 09:30 siete7 #6524 1.483,2.317,2.333,2.293
GB N 8.426s 2023-02-01 00:44 Ardily145 #6525 1.383,2.367,2.366,2.310
PT Y 8.426s 2023-02-08 18:47 Zuzu #6526 1.483,2.317,2.333,2.293
RS Y 8.426s 2023-02-09 18:19 Saraa #6527 1.450,2.333,2.333,2.310
US N 8.426s 2023-02-27 02:15 Ur mother #6528 1.450,2.316,2.334,2.326
AU Y 8.426s 2023-06-02 11:52 Im just better #6529 1.483,2.317,2.333,2.293
NL N 8.426s 2023-06-16 14:41 Olivier Bussche #6530 1.450,2.350,2.333,2.293
BE Y 8.426s 2023-07-29 09:24 Speed #6531 1.350,2.350,2.366,2.360
IN Y 8.426s 2023-09-07 18:36 Vexx #6532 1.450,2.333,2.300,2.343
GB N 8.426s 2023-09-13 17:06 Guest7306 #6533 1.483,2.317,2.333,2.293
DE N 8.426s 2024-02-11 23:37 Guest4964 #6534 1.483,2.317,2.333,2.293
NO Y 8.426s 2024-02-18 17:37 Y momma #6535 1.483,2.317,2.333,2.293
US Y 8.426s 2024-03-09 15:22 diorr #6536 1.433,2.317,2.383,2.293
GB Y 8.426s 2024-03-10 11:37 Guest2610 #6537 1.450,2.333,2.300,2.343
US N 8.426s 2024-03-24 12:30 itsek #6538 1.350,2.400,2.316,2.360
SI N 8.426s 2024-04-07 11:39 Venom #6539 1.450,2.350,2.333,2.293
DZ N 8.426s 2024-05-07 10:55 MegaGanon #6540 1.483,2.317,2.333,2.293
AU N 8.426s 2024-05-29 06:45 Creature #6541 1.450,2.350,2.333,2.293
AU Y 8.426s 2024-07-03 11:35 Billdog521 #6542 1.466,2.317,2.350,2.293
SE N 8.426s 2024-08-03 20:18 Noel #6543 1.450,2.350,2.333,2.293
IL Y 8.426s 2024-08-13 11:53 Tomer12 #6544 1.450,2.316,2.334,2.326
SE N 8.426s 2024-12-07 21:28 Guest7924 #6545 1.483,2.317,2.333,2.293
GB N 8.426s 2025-03-17 15:42 TreDix #6546 1.483,2.317,2.333,2.293
JP N 8.426s 2025-05-15 14:14 STELLA #6547 1.483,2.317,2.333,2.293
PL Y 8.426s 2026-01-01 20:42 strupekk #6548 1.483,2.317,2.333,2.293
DE Y 8.426s 2026-01-10 10:42 FLUFFX #6549 1.400,2.383,2.333,2.310
GB N 8.426s 2026-01-10 22:25 Dxszkiewicz #6550 1.450,2.366,2.300,2.310
IT Y 8.426s 2026-02-08 20:23 Giacomo #6551 1.483,2.317,2.333,2.293
FR Y 8.426s 2026-05-08 06:38 adambg3421 #6552 1.483,2.317,2.333,2.293
IL Y 8.427s 2022-07-02 06:29 liorson #6553 1.416,2.367,2.267,2.377
CL N 8.427s 2022-07-03 16:45 awoopa #6554 1.416,2.367,2.300,2.344
US N 8.427s 2022-07-04 20:33 JTKdoodly #6555 1.433,2.317,2.333,2.344
CA N 8.427s 2022-07-06 05:06 StingingLunatic #6556 1.400,2.333,2.283,2.411
US Y 8.427s 2022-08-03 06:03 GovanZaddy #6557 1.433,2.367,2.266,2.361
NL Y 8.427s 2022-08-03 07:47 Jens #6558 1.383,2.383,2.284,2.377
EE N 8.427s 2022-08-03 09:42 Ukukruusimae #6559 1.416,2.300,2.400,2.311
NL N 8.427s 2022-08-03 18:32 PuliceneZebra57 #6560 1.383,2.367,2.300,2.377
BY Y 8.427s 2022-09-07 15:55 Dysrox #6561 1.450,2.316,2.300,2.361
US N 8.427s 2022-09-07 19:37 Kingbob #6562 1.466,2.317,2.283,2.361
NL Y 8.427s 2022-09-08 16:40 BeautifulHoplit #6563 1.433,2.367,2.266,2.361
US N 8.427s 2022-10-11 03:42 Hops37 #6564 1.433,2.367,2.266,2.361
RU Y 8.427s 2022-10-11 17:12 CHURKA #6565 1.450,2.250,2.316,2.411
AU Y 8.427s 2022-12-07 02:02 😈Grosphoque😈 #6566 1.383,2.317,2.300,2.427
IE Y 8.427s 2022-12-07 12:58 MEMENOBODY #6567 1.466,2.317,2.283,2.361
ES N 8.427s 2022-12-07 13:27 CrunchyPerspect #6568 1.450,2.333,2.283,2.361
GE Y 8.427s 2022-12-07 18:32 niksona #6569 1.483,2.250,2.383,2.311
CZ N 8.427s 2022-12-07 18:40 ojicek #6570 1.383,2.367,2.300,2.377
NO N 8.427s 2022-12-07 20:36 Sebaard #6571 1.466,2.250,2.317,2.394
CZ Y 8.427s 2022-12-07 21:39 zimousek #6572 1.483,2.367,2.266,2.311
SG Y 8.427s 2022-12-08 01:40 obnoxious cat #6573 1.383,2.367,2.300,2.377
CH N 8.427s 2022-12-08 06:39 theo #6574 1.466,2.250,2.384,2.327
NZ N 8.427s 2022-12-08 06:54 Guest2309 #6575 1.466,2.250,2.317,2.394
RS N 8.427s 2022-12-08 10:52 Filip #6576 1.433,2.367,2.300,2.327
CZ Y 8.427s 2022-12-08 14:18 Ondra_ #6577 1.383,2.317,2.333,2.394
HR Y 8.427s 2022-12-08 14:33 ljoleven #6578 1.383,2.367,2.300,2.377
SA Y 8.427s 2022-12-08 15:13 Guest9279 #6579 1.383,2.367,2.300,2.377
IL N 8.427s 2022-12-08 20:16 Alon1gamer3 #6580 1.383,2.367,2.300,2.377
NZ Y 8.427s 2022-12-09 10:02 NM-No Mercy #6581 1.416,2.317,2.283,2.411
IL N 8.427s 2022-12-09 10:07 ThirstyArcher74 #6582 1.383,2.367,2.300,2.377
SG N 8.427s 2022-12-09 10:50 June #6583 1.383,2.367,2.300,2.377
IL Y 8.427s 2022-12-09 11:31 skeleton #6584 1.416,2.317,2.283,2.411
TN Y 8.427s 2022-12-09 15:35 dali #6585 1.450,2.250,2.316,2.411
LB N 8.427s 2022-12-09 19:32 Fadel #6586 1.383,2.367,2.300,2.377
IE Y 8.427s 2022-12-09 22:18 money in my bum #6587 1.416,2.317,2.283,2.411
BG N 8.427s 2022-12-10 10:52 kriz4o #6588 1.383,2.300,2.350,2.394
KW Y 8.427s 2022-12-10 13:19 budd #6589 1.350,2.383,2.350,2.344
IL N 8.427s 2022-12-10 14:13 Viper #6590 1.383,2.367,2.300,2.377
CY N 8.427s 2022-12-10 15:41 Tahi #6591 1.400,2.333,2.367,2.327
IL Y 8.427s 2022-12-11 07:54 Roeeov #6592 1.383,2.367,2.300,2.377
LT N 8.427s 2022-12-11 08:41 EimisLTU #6593 1.350,2.350,2.333,2.394
FI N 8.427s 2022-12-11 12:23 nixnli #6594 1.483,2.367,2.266,2.311
RO N 8.427s 2022-12-12 17:32 ImmaculateCliff #6595 1.383,2.367,2.300,2.377
LV N 8.427s 2022-12-13 19:29 Guest7837 #6596 1.383,2.367,2.300,2.377
BR N 8.427s 2022-12-13 20:06 Xintege #6597 1.433,2.367,2.300,2.327
IE N 8.427s 2022-12-14 08:28 FutureZebra228 #6598 1.450,2.366,2.267,2.344
RO N 8.427s 2022-12-14 11:25 alexx #6599 1.383,2.367,2.300,2.377
LT Y 8.427s 2022-12-14 17:38 WanderingNomad9 #6600 1.450,2.250,2.316,2.411
NO Y 8.427s 2022-12-15 06:30 madalin #6601 1.433,2.367,2.300,2.327
LT Y 8.427s 2022-12-15 08:58 Tomce #6602 1.433,2.367,2.266,2.361
SK Y 8.427s 2022-12-15 17:02 Speed #6603 1.483,2.250,2.383,2.311
FI N 8.427s 2022-12-15 17:02 PatuR10 #6604 1.466,2.250,2.317,2.394
RO Y 8.427s 2022-12-16 00:40 DenisMH_ #6605 1.416,2.317,2.283,2.411
DK N 8.427s 2022-12-16 16:53 ItsBr0k3n #6606 1.383,2.367,2.316,2.361
HU Y 8.427s 2022-12-16 20:26 tothbenedek068 #6607 1.416,2.317,2.283,2.411
RO Y 8.427s 2022-12-17 16:04 Kyto #6608 1.400,2.400,2.300,2.327
IT N 8.427s 2022-12-17 16:36 Hehehha #6609 1.466,2.250,2.317,2.394
IE Y 8.427s 2022-12-17 21:46 FMG #6610 1.450,2.266,2.317,2.394
DK N 8.427s 2022-12-18 10:25 TheBoredomGamer #6611 1.383,2.367,2.300,2.377
NZ N 8.427s 2022-12-21 04:00 AcdcCrab #6612 1.433,2.367,2.266,2.361
NZ Y 8.427s 2022-12-21 05:46 ExoJester #6613 1.433,2.367,2.266,2.361
EE N 8.427s 2022-12-21 14:31 BagOfChips69 #6614 1.433,2.367,2.266,2.361
IQ N 8.427s 2022-12-22 09:43 Guest #6615 1.450,2.316,2.317,2.344
CZ Y 8.427s 2022-12-22 18:19 kikixx #6616 1.450,2.250,2.333,2.394
TN Y 8.427s 2022-12-23 14:14 salim #6617 1.383,2.367,2.300,2.377
ES N 8.427s 2022-12-24 23:13 AffableQuestion #6618 1.416,2.384,2.316,2.311
CH Y 8.427s 2022-12-25 14:44 Sergej69 #6619 1.483,2.250,2.383,2.311
LT Y 8.427s 2022-12-26 11:54 kaju_kajuu #6620 1.383,2.367,2.333,2.344
ES N 8.427s 2022-12-26 21:07 Tarifoo #6621 1.433,2.317,2.333,2.344
NZ Y 8.427s 2022-12-26 22:58 bennyboidaboss #6622 1.383,2.367,2.300,2.377
GR Y 8.427s 2022-12-28 15:39 PO KARMA #6623 1.450,2.266,2.317,2.394
HU N 8.427s 2022-12-28 20:12 Zsombor1220 #6624 1.383,2.367,2.300,2.377
SE N 8.427s 2023-01-04 01:13 Hivix #6625 1.350,2.350,2.350,2.377
SE N 8.427s 2023-02-01 05:50 Yanakasu #6626 1.466,2.317,2.283,2.361
GR N 8.427s 2023-02-01 19:11 Aggelos123 #6627 1.483,2.367,2.266,2.311
NL Y 8.427s 2023-02-02 11:19 Gijs #6628 1.383,2.367,2.300,2.377
NL N 8.427s 2023-02-02 15:48 noan 2 #6629 1.466,2.317,2.283,2.361
US N 8.427s 2023-02-02 19:21 1buxe #6630 1.400,2.366,2.317,2.344
RU N 8.427s 2023-02-07 09:09 diman4ig #6631 1.416,2.317,2.283,2.411
DE N 8.427s 2023-02-07 18:42 Guest3404 #6632 1.433,2.367,2.266,2.361
US Y 8.427s 2023-02-08 00:12 YASS_QUEEN_ye #6633 1.466,2.317,2.283,2.361
CZ Y 8.427s 2023-02-08 17:28 pypis #6634 1.383,2.367,2.300,2.377
IL N 8.427s 2023-02-09 09:07 Masonicgilad #6635 1.433,2.350,2.333,2.311
RO N 8.427s 2023-02-09 15:20 not arxis #6636 1.450,2.350,2.333,2.294
GE N 8.427s 2023-02-11 19:53 oskaravar #6637 1.383,2.367,2.300,2.377
US N 8.427s 2023-02-12 03:45 Mooch #6638 1.450,2.250,2.333,2.394
FR N 8.427s 2023-02-15 20:51 TheShiba59 #6639 1.433,2.367,2.300,2.327
US N 8.427s 2023-02-18 01:34 Zunibow #6640 1.433,2.317,2.333,2.344
NL N 8.427s 2023-02-19 19:46 Heiligekoe #6641 1.466,2.250,2.317,2.394
US N 8.427s 2023-03-02 14:36 Kovekk #6642 1.483,2.367,2.266,2.311
HU N 8.427s 2023-03-04 09:03 ExAtom #6643 1.483,2.250,2.383,2.311
NL N 8.427s 2023-03-09 11:21 Guest4857 #6644 1.450,2.400,2.266,2.311
FI N 8.427s 2023-03-13 18:55 Bidiu #6645 1.383,2.367,2.300,2.377
US N 8.427s 2023-03-23 13:25 enix #6646 1.466,2.317,2.283,2.361
AU N 8.427s 2023-03-27 07:37 Guest4174 #6647 1.383,2.367,2.300,2.377
NL N 8.427s 2023-03-29 05:27 CUBE #6648 1.400,2.300,2.333,2.394
US N 8.427s 2023-04-01 21:21 sam #6649 1.416,2.367,2.317,2.327
GB N 8.427s 2023-04-02 18:02 pehnguman #6650 1.350,2.333,2.433,2.311
NL N 8.427s 2023-04-03 13:57 Guest8298 #6651 1.383,2.300,2.433,2.311
US N 8.427s 2023-04-03 15:03 Doggydoge65 #6652 1.400,2.350,2.333,2.344
DE N 8.427s 2023-04-06 19:19 Guest4182 #6653 1.433,2.367,2.266,2.361
AT N 8.427s 2023-04-09 16:19 Lorenz_Born #6654 1.383,2.367,2.300,2.377
GB N 8.427s 2023-04-09 19:30 Reindeer #6655 1.400,2.350,2.333,2.344
SK N 8.427s 2023-04-15 20:12 gormitko835 #6656 1.483,2.367,2.266,2.311
NL N 8.427s 2023-04-18 18:59 Grote koe_2 #6657 1.416,2.367,2.317,2.327
ES N 8.427s 2023-04-20 12:54 Adelvalle #6658 1.383,2.367,2.300,2.377
US N 8.427s 2023-04-21 18:14 RuminatingDrake #6659 1.383,2.367,2.300,2.377
GB N 8.427s 2023-04-26 15:13 SOPTTM #6660 1.383,2.367,2.300,2.377
GB N 8.427s 2023-05-06 15:12 SpottedAdventur #6661 1.466,2.317,2.283,2.361
SK N 8.427s 2023-05-06 15:27 RIKnator #6662 1.450,2.250,2.333,2.394
RU Y 8.427s 2023-05-08 03:29 Luna24978 #6663 1.400,2.366,2.334,2.327
AU N 8.427s 2023-05-09 12:58 quacks #6664 1.433,2.367,2.300,2.327
FR N 8.427s 2023-05-09 13:37 thegreatmaximus #6665 1.383,2.367,2.333,2.344
NO N 8.427s 2023-05-09 13:45 PinqHitz #6666 1.383,2.367,2.300,2.377
US Y 8.427s 2023-05-09 18:50 envvyeli #6667 1.433,2.300,2.383,2.311
BA Y 8.427s 2023-05-10 19:17 XXhamzaXX #6668 1.400,2.366,2.300,2.361
PL Y 8.427s 2023-05-11 15:20 whatever2115 #6669 1.433,2.367,2.266,2.361
BY N 8.427s 2023-05-12 18:00 Clad #6670 1.383,2.367,2.300,2.377
LV Y 8.427s 2023-05-14 10:49 BizBizPlays #6671 1.350,2.350,2.366,2.361
IT N 8.427s 2023-05-16 08:27 TheGamer87 #6672 1.383,2.367,2.300,2.377
FR N 8.427s 2023-05-20 13:39 Enderiume #6673 1.483,2.367,2.266,2.311
CA Y 8.427s 2023-05-22 12:52 Battguy #6674 1.350,2.400,2.333,2.344
IT N 8.427s 2023-05-26 07:29 ElSalvador #6675 1.383,2.383,2.300,2.361
US Y 8.427s 2023-05-27 12:46 Taco #6676 1.450,2.250,2.333,2.394
IL N 8.427s 2023-06-01 11:09 NoamSaada #6677 1.483,2.367,2.266,2.311
IL Y 8.427s 2023-06-03 06:32 w amit #6678 1.383,2.367,2.300,2.377
IL N 8.427s 2023-06-05 19:18 TemporaryAuthor #6679 1.450,2.250,2.316,2.411
CH Y 8.427s 2023-06-07 05:08 ___ #6680 1.450,2.250,2.333,2.394
US N 8.427s 2023-06-09 00:51 luno #6681 1.483,2.367,2.266,2.311
PL N 8.427s 2023-06-15 14:30 PlacekGamingg #6682 1.416,2.384,2.300,2.327
IE N 8.427s 2023-06-27 21:27 Lix3r1 #6683 1.383,2.367,2.300,2.377
US Y 8.427s 2023-06-30 17:05 elhacker99 #6684 1.350,2.350,2.366,2.361
CA Y 8.427s 2023-07-03 21:48 Guest3684 #6685 1.383,2.367,2.300,2.377
GB N 8.427s 2023-07-04 07:27 Kayden #6686 1.383,2.367,2.300,2.377
CZ N 8.427s 2023-07-06 19:09 sasa #6687 1.366,2.350,2.367,2.344
US N 8.427s 2023-07-09 14:34 Guest8113 #6688 1.383,2.383,2.300,2.361
US N 8.427s 2023-07-12 20:22 Finnmark288 #6689 1.450,2.316,2.300,2.361
US Y 8.427s 2023-07-13 13:57 Joeshark #6690 1.350,2.350,2.333,2.394
GB N 8.427s 2023-07-13 17:37 The goat alt #6691 1.383,2.333,2.350,2.361
GB Y 8.427s 2023-07-20 06:50 Derfthenoob #6692 1.483,2.367,2.266,2.311
US N 8.427s 2023-07-22 08:12 puglifedg #6693 1.416,2.317,2.283,2.411
US N 8.427s 2023-07-26 13:16 The Watcher sis #6694 1.383,2.367,2.300,2.377
AT N 8.427s 2023-07-29 16:08 Motion #6695 1.433,2.367,2.266,2.361
NL N 8.427s 2023-08-01 12:00 SuperG #6696 1.350,2.316,2.350,2.411
NL N 8.427s 2023-08-03 10:39 earthpirate2008 #6697 1.366,2.350,2.350,2.361
SE N 8.427s 2023-08-05 12:04 yovuo #6698 1.383,2.367,2.300,2.377
US N 8.427s 2023-08-13 05:31 MrBongo #6699 1.350,2.350,2.333,2.394
US Y 8.427s 2023-08-13 17:12 mr onion #6700 1.416,2.317,2.283,2.411
US N 8.427s 2023-08-21 14:42 licpg9 #6701 1.383,2.400,2.317,2.327
US N 8.427s 2023-08-27 04:50 Tzuni #6702 1.366,2.350,2.334,2.377
PL Y 8.427s 2023-08-27 20:35 stelmi_2010 #6703 1.366,2.384,2.333,2.344
AU N 8.427s 2023-08-28 12:58 nina #6704 1.350,2.350,2.350,2.377
NL N 8.427s 2023-09-02 08:10 Skelter fc #6705 1.466,2.317,2.283,2.361
DK N 8.427s 2023-09-02 19:04 vhs_maxe #6706 1.383,2.367,2.300,2.377
SG N 8.427s 2023-09-03 11:26 PotentBlade01 #6707 1.466,2.317,2.283,2.361
SE N 8.427s 2023-09-06 13:33 Ivar #6708 1.383,2.367,2.300,2.377
SE N 8.427s 2023-09-09 10:17 Aro #6709 1.400,2.300,2.333,2.394
IE Y 8.427s 2023-09-12 17:22 imcompotentfool #6710 1.383,2.367,2.300,2.377
GB N 8.427s 2023-09-27 08:46 Calluflame #6711 1.450,2.366,2.267,2.344
NL Y 8.427s 2023-10-09 05:47 MagmaPlays #6712 1.350,2.350,2.350,2.377
SI N 8.427s 2023-10-12 17:28 Juliprogg #6713 1.383,2.333,2.400,2.311
DZ N 8.427s 2023-10-16 15:10 Guest2400 #6714 1.450,2.333,2.283,2.361
US Y 8.427s 2023-10-17 01:54 Ur mom #6715 1.450,2.250,2.333,2.394
DE N 8.427s 2023-10-17 07:49 Werto #6716 1.400,2.350,2.333,2.344
US N 8.427s 2023-10-19 23:51 C-Money #6717 1.383,2.367,2.300,2.377
US N 8.427s 2023-10-25 20:34 SecludedLynx25 #6718 1.383,2.367,2.300,2.377
BA N 8.427s 2023-10-28 15:01 BlazeVC5 #6719 1.383,2.367,2.300,2.377
US N 8.427s 2023-10-28 16:59 Chicke123 #6720 1.466,2.317,2.283,2.361
DE N 8.427s 2023-11-03 13:09 Guest9264 #6721 1.383,2.367,2.300,2.377
AT N 8.427s 2023-11-16 12:47 broke fskl 9 #6722 1.383,2.417,2.266,2.361
HR N 8.427s 2023-11-19 19:18 NotBartol #6723 1.466,2.384,2.266,2.311
NL N 8.427s 2023-11-21 18:58 cheesechomper #6724 1.366,2.367,2.333,2.361
SI N 8.427s 2023-12-03 17:13 samojster #6725 1.483,2.250,2.383,2.311
FR Y 8.427s 2023-12-05 14:31 JwoftJ #6726 1.466,2.317,2.283,2.361
SE N 8.427s 2023-12-05 19:09 Axeldenix #6727 1.400,2.316,2.284,2.427
BY N 8.427s 2023-12-13 14:25 Arsen1yAbobaNew #6728 1.400,2.350,2.333,2.344
GB N 8.427s 2023-12-16 20:07 T1ontheblock #6729 1.416,2.350,2.334,2.327
NZ N 8.427s 2023-12-20 04:41 Bad #6730 1.483,2.367,2.266,2.311
GB Y 8.427s 2023-12-20 11:09 Tenur Brognat #6731 1.483,2.250,2.383,2.311
RU N 8.427s 2023-12-22 18:39 RegalCanary4856 #6732 1.466,2.317,2.283,2.361
GB N 8.427s 2023-12-31 17:27 IronicExhortati #6733 1.383,2.367,2.316,2.361
CA N 8.427s 2024-01-05 21:41 Calum #6734 1.416,2.317,2.283,2.411
US Y 8.427s 2024-01-09 16:46 GufyGoblin69 #6735 1.383,2.400,2.283,2.361
BE Y 8.427s 2024-01-25 11:19 jordyheyndels #6736 1.383,2.367,2.316,2.361
NL Y 8.427s 2024-01-25 14:17 Imabatukum #6737 1.383,2.367,2.300,2.377
FR N 8.427s 2024-01-28 15:32 Samdjor #6738 1.433,2.317,2.333,2.344
JP Y 8.427s 2024-01-28 20:53 sigtuna #6739 1.450,2.316,2.284,2.377
TR N 8.427s 2024-02-01 14:44 kaizen #6740 1.433,2.317,2.333,2.344
PL Y 8.427s 2024-02-06 11:50 Neties #6741 1.466,2.317,2.283,2.361
BE Y 8.427s 2024-02-07 13:54 Louxit #6742 1.466,2.317,2.283,2.361
US N 8.427s 2024-02-09 23:00 NobodySomeone #6743 1.416,2.400,2.300,2.311
US Y 8.427s 2024-02-10 21:09 ItzNeo #6744 1.383,2.367,2.300,2.377
SI N 8.427s 2024-02-12 12:21 ingec #6745 1.383,2.367,2.300,2.377
DK N 8.427s 2024-02-14 10:37 RelaxoCatcher69 #6746 1.433,2.367,2.300,2.327
US N 8.427s 2024-02-16 02:50 JakeF132 #6747 1.400,2.400,2.266,2.361
US N 8.427s 2024-02-23 19:48 Guest7293 #6748 1.383,2.367,2.300,2.377
US N 8.427s 2024-03-04 17:23 brush1337 #6749 1.466,2.317,2.283,2.361
GB N 8.427s 2024-03-07 06:13 war swan #6750 1.400,2.366,2.334,2.327
FI N 8.427s 2024-03-14 11:08 JonaPoka #6751 1.383,2.367,2.300,2.377
US N 8.427s 2024-03-17 16:46 Guest8077 #6752 1.433,2.367,2.300,2.327
US Y 8.427s 2024-04-02 02:09 donesteechez #6753 1.400,2.350,2.333,2.344
RS N 8.427s 2024-04-05 09:18 JollyTransit7 #6754 1.383,2.367,2.300,2.377
DE N 8.427s 2024-04-07 18:22 vxTheKing #6755 1.466,2.317,2.283,2.361
NO N 8.427s 2024-04-09 18:54 Guest7515 #6756 1.350,2.350,2.366,2.361
PL N 8.427s 2024-04-10 09:09 gaweleQ #6757 1.366,2.384,2.333,2.344
AE N 8.427s 2024-04-22 14:53 Eisa sahib 75 #6758 1.383,2.300,2.333,2.411
NO Y 8.427s 2024-04-26 09:34 Marius #6759 1.383,2.400,2.350,2.294
GB N 8.427s 2024-05-02 13:31 connorzxz #6760 1.466,2.317,2.283,2.361
US Y 8.427s 2024-05-11 23:00 Guest5761 #6761 1.466,2.317,2.283,2.361
GR N 8.427s 2024-05-26 09:15 Guest3375 #6762 1.350,2.350,2.350,2.377
SE N 8.427s 2024-05-31 09:02 Guest1469 #6763 1.466,2.317,2.283,2.361
DZ N 8.427s 2024-06-04 20:12 FulsomeMediator #6764 1.433,2.317,2.333,2.344
LT N 8.427s 2024-06-05 12:32 Defka #6765 1.433,2.317,2.333,2.344
PL N 8.427s 2024-06-06 21:50 Guest5489 #6766 1.400,2.333,2.333,2.361
SE N 8.427s 2024-06-09 13:24 Guest1483 #6767 1.416,2.317,2.283,2.411
GB N 8.427s 2024-07-01 12:18 Robbo #6768 1.466,2.250,2.317,2.394
US Y 8.427s 2024-07-07 17:36 BigBOI4239 #6769 1.383,2.367,2.266,2.411
SE N 8.427s 2024-07-18 16:37 H4P #6770 1.450,2.333,2.300,2.344
AR Y 8.427s 2024-07-20 18:08 fred #6771 1.433,2.300,2.333,2.361
RU N 8.427s 2024-08-03 16:25 Damir #6772 1.400,2.400,2.300,2.327
RU N 8.427s 2024-08-06 19:44 cops #6773 1.383,2.367,2.300,2.377
DE Y 8.427s 2024-08-08 09:53 SG1MAX #6774 1.383,2.400,2.300,2.344
US N 8.427s 2024-08-10 17:29 Chicago #6775 1.466,2.317,2.283,2.361
MK N 8.427s 2024-09-29 13:54 Dizzeh #6776 1.383,2.367,2.300,2.377
FI N 8.427s 2024-10-02 09:08 BeeboSunner #6777 1.450,2.316,2.300,2.361
CA N 8.427s 2024-10-08 23:48 vez #6778 1.383,2.317,2.366,2.361
HR N 8.427s 2024-10-26 07:06 Bosko #6779 1.400,2.300,2.366,2.361
BG N 8.427s 2024-11-21 09:05 Valio_144hz #6780 1.433,2.300,2.383,2.311
GB N 8.427s 2024-12-04 12:29 Axel9967 #6781 1.366,2.367,2.333,2.361
CA Y 8.427s 2024-12-10 23:20 Ender #6782 1.433,2.367,2.300,2.327
BG N 8.427s 2024-12-18 17:12 Niki_bota2 #6783 1.383,2.367,2.300,2.377
FR N 8.427s 2024-12-21 08:36 Wa3sso #6784 1.383,2.367,2.300,2.377
IL N 8.427s 2025-01-19 12:35 af ozen garon #6785 1.433,2.300,2.383,2.311
BR Y 8.427s 2025-02-08 00:50 Junior #6786 1.433,2.333,2.284,2.377
US N 8.427s 2025-02-17 04:13 Alexandra #6787 1.350,2.333,2.383,2.361
HK N 8.427s 2025-02-26 09:36 himhimisme #6788 1.466,2.367,2.267,2.327
VN N 8.427s 2025-03-14 06:11 Neco #6789 1.466,2.317,2.283,2.361
US N 8.427s 2025-03-31 05:53 CyBoi #6790 1.416,2.317,2.283,2.411
TW N 8.427s 2025-04-26 14:28 QianYi #6791 1.483,2.367,2.266,2.311
DZ N 8.427s 2025-05-01 12:30 Tuff #6792 1.383,2.333,2.367,2.344
IL N 8.427s 2025-05-13 07:03 KingMa_Go #6793 1.383,2.417,2.300,2.327
FR N 8.427s 2025-07-03 23:36 Adelzo #6794 1.483,2.250,2.383,2.311
AU N 8.427s 2025-12-20 09:42 Zakdagoat #6795 1.383,2.367,2.266,2.411
US Y 8.427s 2025-12-20 16:00 Zmb #6796 1.433,2.317,2.333,2.344
CA N 8.427s 2025-12-21 15:47 Ogxxmassnipes #6797 1.450,2.266,2.317,2.394
NL N 8.427s 2025-12-26 17:50 Smitje1705 #6798 1.383,2.367,2.300,2.377
NL N 8.427s 2025-12-30 07:32 miekamietaa #6799 1.383,2.300,2.433,2.311
PL N 8.427s 2025-12-30 12:23 Mr.Antezz #6800 1.416,2.317,2.283,2.411
JP Y 8.427s 2026-01-01 10:16 ばなな #6801 1.383,2.367,2.300,2.377
NL N 8.427s 2026-01-03 14:01 Kankerhomo #6802 1.450,2.366,2.284,2.327
ES Y 8.427s 2026-01-14 10:51 xulomanpro5 #6803 1.416,2.317,2.350,2.344
IE Y 8.427s 2026-01-21 18:26 Meqz #6804 1.483,2.367,2.266,2.311
US Y 8.427s 2026-01-21 19:15 Grunt3455 #6805 1.383,2.367,2.300,2.377
HU N 8.427s 2026-01-24 22:38 Mate #6806 1.433,2.367,2.300,2.327
US Y 8.427s 2026-02-08 22:51 declan #6807 1.383,2.367,2.300,2.377
ES Y 8.427s 2026-02-12 10:37 pacob #6808 1.383,2.367,2.300,2.377
BG Y 8.427s 2026-02-13 19:40 omgplayer(The Flawless 100%) #6809 1.416,2.317,2.350,2.344
US N 8.427s 2026-02-21 23:42 abinder #6810 1.466,2.317,2.283,2.361
US N 8.427s 2026-02-24 03:04 N¡gg@butt #6811 1.466,2.250,2.317,2.394
KR N 8.427s 2026-02-24 13:49 무너띠 #6812 1.483,2.367,2.266,2.311
EE Y 8.427s 2026-03-01 15:08 Karus #6813 1.433,2.317,2.333,2.344
GB N 8.427s 2026-03-10 09:23 Guest6627 #6814 1.433,2.350,2.333,2.311
PL N 8.427s 2026-03-13 13:15 Krissolik #6815 1.383,2.367,2.300,2.377
US N 8.427s 2026-03-14 20:54 Dusk #6816 1.483,2.367,2.266,2.311
GB N 8.427s 2026-03-18 00:39 afc_2409 #6817 1.483,2.367,2.266,2.311
CA N 8.427s 2026-03-18 20:41 Guest1055 #6818 1.466,2.317,2.283,2.361
US Y 8.427s 2026-03-20 06:17 Guest1961 #6819 1.433,2.367,2.300,2.327
NL N 8.427s 2026-03-21 08:11 blub #6820 1.450,2.333,2.283,2.361
CH N 8.427s 2026-03-29 13:52 sleepy Mouse #6821 1.433,2.367,2.266,2.361
CA N 8.427s 2026-03-30 03:19 ADécamètre #6822 1.383,2.367,2.300,2.377
BR N 8.427s 2026-04-04 02:11 pe.britto #6823 1.383,2.367,2.300,2.377
US N 8.427s 2026-04-04 19:15 SlickLoon102 #6824 1.383,2.367,2.300,2.377
FR Y 8.427s 2026-04-05 22:14 basi1e #6825 1.383,2.367,2.300,2.377
PL Y 8.427s 2026-04-06 20:08 DistalBugaboo64 #6826 1.416,2.317,2.283,2.411
SK Y 8.427s 2026-04-10 08:44 Čučoriedka27 #6827 1.466,2.250,2.317,2.394
IN N 8.427s 2026-04-13 03:44 yanatpru #6828 1.450,2.316,2.300,2.361
US N 8.427s 2026-04-16 23:17 Shuppet #6829 1.466,2.317,2.283,2.361
DE N 8.427s 2026-04-19 11:42 BrawnyCaddy7438 #6830 1.433,2.317,2.333,2.344
NO N 8.427s 2026-04-24 18:13 thzzxg0dz #6831 1.466,2.284,2.400,2.277
GR N 8.427s 2026-04-26 09:27 giw #6832 1.466,2.250,2.367,2.344
AR N 8.427s 2026-05-03 06:43 Francorubio23 #6833 1.433,2.400,2.283,2.311
LT Y 8.427s 2026-05-04 09:05 DryDrummer12407 #6834 1.383,2.317,2.316,2.411
GB N 8.428s 2022-07-04 00:08 Ethbot #6835 1.433,2.367,2.366,2.262
US Y 8.428s 2022-09-08 01:02 UncorrectedLine #6836 1.433,2.367,2.366,2.262
CZ Y 8.428s 2022-09-08 07:50 kauflandmilk #6837 1.466,2.267,2.350,2.345
LV N 8.428s 2022-12-08 16:55 Robis #6838 1.516,2.250,2.334,2.328
RS Y 8.428s 2022-12-09 23:58 AloofReptile720 #6839 1.433,2.367,2.366,2.262
IT N 8.428s 2022-12-11 09:52 Strongerbot29 #6840 1.466,2.250,2.350,2.362
AT Y 8.428s 2022-12-21 17:42 MacJurko #6841 1.450,2.283,2.367,2.328
US N 8.428s 2023-06-09 12:35 Romy #6842 1.500,2.250,2.350,2.328
NL Y 8.428s 2024-03-04 16:42 Jvdv #6843 1.533,2.250,2.317,2.328
GB N 8.428s 2025-03-21 20:08 abyss017 #6844 1.533,2.250,2.317,2.328
US N 8.428s 2025-10-14 22:17 Lost #6845 1.383,2.383,2.367,2.295
NO Y 8.428s 2026-05-01 15:44 elaishen #6846 1.450,2.266,2.317,2.395
BE N 8.428s 2026-05-06 10:47 kobertje #6847 1.533,2.250,2.317,2.328
CA Y 8.440s 2022-10-11 15:22 hop hop shit #6848 1.433,2.333,2.334,2.340
NL N 8.440s 2023-06-24 10:46 Just #6849 1.416,2.334,2.350,2.340
US Y 8.441s 2022-07-03 23:24 Vexx #6850 1.483,2.250,2.383,2.325
CA Y 8.441s 2022-08-03 00:35 Cactihomie #6851 1.450,2.283,2.383,2.325
ES Y 8.441s 2022-12-07 18:51 come #6852 1.466,2.250,2.384,2.341
LT N 8.441s 2022-12-09 05:08 sexy VGR #6853 1.433,2.300,2.383,2.325
GG Y 8.441s 2022-12-21 14:34 Ezy #6854 1.466,2.250,2.384,2.341
CA N 8.441s 2023-05-10 16:19 James404_ #6855 1.450,2.266,2.400,2.325
US Y 8.441s 2023-10-25 22:52 Duskie #6856 1.483,2.250,2.383,2.325
US N 8.441s 2024-01-11 19:38 Evan1234 #6857 1.483,2.250,2.383,2.325
IE Y 8.441s 2024-01-28 10:55 Liam Jee #6858 1.416,2.300,2.384,2.341
GB Y 8.441s 2024-02-13 17:56 DarkMagic #6859 1.483,2.250,2.383,2.325
PL Y 8.441s 2024-02-15 08:14 kititeo #6860 1.350,2.300,2.466,2.325
GB Y 8.441s 2024-04-04 12:49 El_Baguette #6861 1.483,2.250,2.383,2.325
US Y 8.441s 2024-05-14 10:09 Guest2220 #6862 1.483,2.250,2.383,2.325
DE N 8.441s 2024-08-06 15:30 Doomhd44 #6863 1.483,2.250,2.383,2.325
RO N 8.441s 2024-09-12 05:48 dragos20100000 #6864 1.400,2.300,2.416,2.325
NL Y 8.441s 2026-03-23 07:42 steffieGOY #6865 1.416,2.350,2.350,2.325
GE N 8.442s 2022-12-18 16:35 kupatmachen #6866 1.483,2.250,2.367,2.342
UA Y 8.443s 2022-07-03 23:37 st0ne #6867 1.450,2.250,2.316,2.427
US N 8.443s 2022-07-05 22:34 Blob #6868 1.450,2.366,2.300,2.327
SG N 8.443s 2022-08-03 09:28 Bbqdic #6869 1.500,2.316,2.334,2.293
GB Y 8.443s 2022-09-07 02:50 monkey boi #6870 1.450,2.366,2.300,2.327
DZ N 8.443s 2022-09-07 10:03 I'm faster #6871 1.500,2.316,2.334,2.293
US N 8.443s 2022-12-07 00:02 Guest6675 #6872 1.500,2.316,2.334,2.293
US Y 8.443s 2022-12-07 00:08 RCB #6873 1.383,2.367,2.366,2.327
GB N 8.443s 2022-12-07 01:55 MissOJ #6874 1.450,2.366,2.300,2.327
LT Y 8.443s 2022-12-08 12:43 Ksnshsj #6875 1.383,2.367,2.366,2.327
IE Y 8.443s 2022-12-08 16:35 ZoomBoi #6876 1.450,2.316,2.334,2.343
LV N 8.443s 2022-12-09 05:54 DuckTheNuub #6877 1.483,2.333,2.334,2.293
BA Y 8.443s 2022-12-10 14:11 NoxiousAssertio #6878 1.483,2.250,2.317,2.393
HU Y 8.443s 2022-12-12 08:38 Fityisz7 #6879 1.383,2.367,2.366,2.327
HU Y 8.443s 2022-12-12 17:32 lost #6880 1.500,2.316,2.334,2.293
CZ N 8.443s 2022-12-14 07:35 HungryJelly8395 #6881 1.383,2.367,2.366,2.327
HR Y 8.443s 2022-12-14 19:38 Fimmry #6882 1.383,2.367,2.300,2.393
RU Y 8.443s 2022-12-15 06:53 TenseWinner2349 #6883 1.450,2.316,2.334,2.343
XK N 8.443s 2022-12-15 22:12 altinbaba #6884 1.383,2.367,2.366,2.327
HU Y 8.443s 2022-12-16 12:26 Kaki Maki #6885 1.400,2.383,2.367,2.293
MD N 8.443s 2022-12-16 13:43 CrisXD #6886 1.466,2.317,2.350,2.310
RO Y 8.443s 2022-12-16 17:22 perryorintorinc #6887 1.383,2.367,2.366,2.327
LV Y 8.443s 2022-12-16 19:21 DezyF #6888 1.383,2.417,2.283,2.360
EE Y 8.443s 2022-12-17 11:07 4kaur #6889 1.450,2.366,2.300,2.327
HU Y 8.443s 2022-12-18 20:54 Domi #6890 1.450,2.316,2.334,2.343
TH N 8.443s 2022-12-21 00:17 chana8308 #6891 1.450,2.316,2.334,2.343
NZ N 8.443s 2022-12-21 08:12 LuckyTii #6892 1.450,2.316,2.334,2.343
NZ Y 8.443s 2022-12-22 03:03 XxSPxX #6893 1.500,2.316,2.334,2.293
BY N 8.443s 2022-12-23 08:53 Lvnx1z #6894 1.450,2.316,2.334,2.343
LT Y 8.443s 2022-12-24 05:17 Jaxcy #6895 1.450,2.366,2.300,2.327
GR N 8.443s 2022-12-28 16:56 UnderlyingEntra #6896 1.433,2.317,2.350,2.343
FR Y 8.443s 2023-01-04 00:35 Mvxime #6897 1.383,2.367,2.333,2.360
US Y 8.443s 2023-01-04 02:00 SLOAN97 #6898 1.450,2.316,2.334,2.343
IE Y 8.443s 2023-01-05 04:15 Guest6742 #6899 1.450,2.300,2.333,2.360
HU Y 8.443s 2023-02-03 16:51 Guest2656 #6900 1.416,2.350,2.367,2.310
EG N 8.443s 2023-02-03 18:17 gamerseifexo #6901 1.450,2.366,2.300,2.327
CH Y 8.443s 2023-02-10 18:37 kingmeg04 #6902 1.383,2.367,2.366,2.327
SK N 8.443s 2023-03-22 15:26 Wolfman #6903 1.450,2.316,2.334,2.343
BE N 8.443s 2023-04-05 22:30 G00dGqm3R #6904 1.450,2.366,2.300,2.327
IL N 8.443s 2023-05-13 05:43 oriking #6905 1.450,2.366,2.300,2.327
CA Y 8.443s 2023-05-15 12:47 Paras #6906 1.383,2.367,2.366,2.327
SE N 8.443s 2023-05-26 09:03 2fast4u #6907 1.500,2.316,2.334,2.293
CZ Y 8.443s 2023-05-31 09:31 kocicek #6908 1.383,2.367,2.366,2.327
US Y 8.443s 2023-07-01 07:35 YTPMDchane #6909 1.383,2.367,2.350,2.343
NZ Y 8.443s 2023-07-14 08:09 kingsman3847 #6910 1.450,2.366,2.300,2.327
SE Y 8.443s 2023-08-18 10:40 Sestivil_swe #6911 1.383,2.367,2.366,2.327
CA Y 8.443s 2023-08-25 01:14 shamon #6912 1.483,2.317,2.283,2.360
AU N 8.443s 2023-09-02 04:09 Blakecr #6913 1.450,2.316,2.334,2.343
US Y 8.443s 2023-09-07 19:20 Kainkina #6914 1.483,2.250,2.317,2.393
TH Y 8.443s 2023-10-14 02:37 PirateOwl28969 #6915 1.400,2.383,2.317,2.343
US Y 8.443s 2023-10-14 04:48 Br3ad #6916 1.450,2.366,2.300,2.327
DE N 8.443s 2023-11-09 16:25 Guest8059 #6917 1.350,2.400,2.350,2.343
FR N 8.443s 2023-12-12 12:33 babajesus08 #6918 1.383,2.367,2.366,2.327
SE Y 8.443s 2023-12-18 20:34 Walle #6919 1.450,2.333,2.367,2.293
GB Y 8.443s 2023-12-21 20:37 Im bad #6920 1.450,2.316,2.334,2.343
NL Y 8.443s 2023-12-26 10:54 Henk Gieter #6921 1.450,2.366,2.300,2.327
NL N 8.443s 2024-01-20 18:02 Guest3029 #6922 1.450,2.316,2.334,2.343
HK Y 8.443s 2024-01-29 17:12 Fishballlllll #6923 1.383,2.417,2.283,2.360
GB N 8.443s 2024-02-16 11:16 Bruh #6924 1.350,2.400,2.350,2.343
DE Y 8.443s 2024-02-25 19:02 coolerlux #6925 1.466,2.317,2.367,2.293
US Y 8.443s 2024-04-10 03:39 Coda57 #6926 1.483,2.317,2.283,2.360
US N 8.443s 2024-04-12 23:26 Cthulu #6927 1.416,2.400,2.300,2.327
CH Y 8.443s 2024-04-20 20:33 kangarooguyx2 #6928 1.400,2.366,2.317,2.360
AU Y 8.443s 2024-04-24 10:28 Bootylicker72 #6929 1.450,2.366,2.300,2.327
US Y 8.443s 2024-05-04 00:12 Vortex #6930 1.450,2.316,2.334,2.343
GB N 8.443s 2024-05-09 12:41 masteroga11 #6931 1.483,2.317,2.350,2.293
MY Y 8.443s 2024-05-11 13:41 Hamizannaruto #6932 1.383,2.367,2.366,2.327
US N 8.443s 2024-06-16 22:39 Fastafboi #6933 1.383,2.367,2.366,2.327
BE N 8.443s 2024-07-09 09:30 Noiros15 #6934 1.450,2.350,2.333,2.310
NL Y 8.443s 2024-07-09 12:38 thijmi #6935 1.383,2.367,2.316,2.377
NL Y 8.443s 2024-07-16 08:54 Ezclap #6936 1.416,2.367,2.333,2.327
NP Y 8.443s 2024-07-19 12:23 Exo | Lucifer💀 #6937 1.450,2.316,2.334,2.343
PL Y 8.443s 2024-07-21 11:55 gentleman #6938 1.450,2.366,2.300,2.327
BR Y 8.443s 2024-08-03 05:23 LowGameplaysOFC #6939 1.450,2.316,2.334,2.343
CZ N 8.443s 2024-08-05 06:20 Guest6550 #6940 1.450,2.266,2.334,2.393
AU N 8.443s 2024-09-22 00:52 ZachyBoi #6941 1.416,2.367,2.267,2.393
US N 8.443s 2024-10-16 06:20 TikTok Rl_Zeke #6942 1.450,2.316,2.334,2.343
EE N 8.443s 2024-11-29 08:47 Skyy #6943 1.383,2.367,2.366,2.327
FR N 8.443s 2025-06-04 07:29 barbecue🌭 #6944 1.350,2.350,2.350,2.393
US N 8.443s 2025-07-03 12:05 Etnkm12129 #6945 1.350,2.350,2.366,2.377
SE N 8.443s 2026-01-01 16:37 MatteKurre69 #6946 1.416,2.400,2.300,2.327
TR Y 8.443s 2026-01-10 17:52 Kero #6947 1.483,2.317,2.283,2.360
RO N 8.443s 2026-01-19 16:39 Drx #6948 1.383,2.367,2.366,2.327
ZA N 8.443s 2026-01-26 10:39 Guest5951 #6949 1.383,2.350,2.350,2.360
IN Y 8.443s 2026-02-12 14:33 X⠀ #6950 1.500,2.316,2.334,2.293
DZ Y 8.443s 2026-02-16 22:17 Se1foo #6951 1.450,2.316,2.334,2.343
CA Y 8.443s 2026-02-23 19:53 Guest3772 #6952 1.383,2.367,2.366,2.327
US Y 8.443s 2026-02-26 21:27 TheBlackOstrich #6953 1.383,2.367,2.366,2.327
GB N 8.443s 2026-03-10 22:54 abnw #6954 1.500,2.316,2.334,2.293
IL Y 8.443s 2026-03-13 17:57 Guest2459 #6955 1.400,2.350,2.383,2.310
US Y 8.443s 2026-03-14 03:53 Guest9623 #6956 1.383,2.367,2.366,2.327
CA Y 8.443s 2026-03-15 04:08 Blank #6957 1.450,2.316,2.317,2.360
MY N 8.443s 2026-03-27 22:45 vic404 #6958 1.383,2.417,2.316,2.327
TW N 8.443s 2026-04-13 15:08 Guest5834 #6959 1.383,2.367,2.366,2.327
ZA N 8.443s 2026-05-06 07:41 JudaseasNudasMakes #6960 1.483,2.250,2.317,2.393
FR Y 8.444s 2022-09-07 05:03 valcmoi #6961 1.350,2.400,2.350,2.344
NO N 8.444s 2022-09-07 07:21 Turbussen #6962 1.350,2.383,2.367,2.344
US Y 8.444s 2022-09-07 22:51 Weaselwade #6963 1.450,2.366,2.267,2.361
TR N 8.444s 2022-09-08 07:22 AslanTZ #6964 1.450,2.366,2.267,2.361
TR Y 8.444s 2022-12-07 08:33 FIRAT CAN #6965 1.450,2.366,2.367,2.261
LT Y 8.444s 2022-12-07 09:49 ExoSnek #6966 1.383,2.317,2.316,2.428
LV Y 8.444s 2022-12-08 13:59 Nexzyeleven #6967 1.433,2.317,2.283,2.411
RO Y 8.444s 2022-12-09 10:01 mayo. #6968 1.450,2.366,2.367,2.261
CZ N 8.444s 2022-12-10 08:42 VincentAceton #6969 1.533,2.250,2.317,2.344
DK Y 8.444s 2022-12-10 14:57 F1_Dinho #6970 1.500,2.250,2.383,2.311
EE Y 8.444s 2022-12-12 16:11 noproblem #6971 1.450,2.366,2.267,2.361
CZ N 8.444s 2022-12-15 06:10 AdamCZ #6972 1.350,2.300,2.383,2.411
RO Y 8.444s 2022-12-15 19:11 beelucky #6973 1.483,2.267,2.383,2.311
HU Y 8.444s 2022-12-16 11:22 Mikike1836 #6974 1.433,2.383,2.267,2.361
CZ N 8.444s 2022-12-16 21:31 ledasbest #6975 1.350,2.300,2.383,2.411
RO N 8.444s 2022-12-17 07:29 Gam_er47 #6976 1.500,2.366,2.267,2.311
AT Y 8.444s 2022-12-18 11:15 DaniFire0 #6977 1.350,2.350,2.450,2.294
IT N 8.444s 2022-12-19 17:15 astri #6978 1.350,2.300,2.383,2.411
IT Y 8.444s 2022-12-19 19:04 don007ambrovio #6979 1.350,2.300,2.383,2.411
LV Y 8.444s 2022-12-20 07:35 Zen1_tsuOnExo #6980 1.350,2.300,2.383,2.411
MK N 8.444s 2022-12-20 11:37 AnDi #6981 1.400,2.366,2.300,2.378
LU Y 8.444s 2022-12-20 14:28 thebestproguy #6982 1.366,2.384,2.333,2.361
DK Y 8.444s 2022-12-20 20:19 REF #6983 1.400,2.316,2.400,2.328
IT Y 8.444s 2022-12-21 13:01 IMGODNICO104 #6984 1.450,2.366,2.267,2.361
RO N 8.444s 2022-12-22 09:00 Lets goo #6985 1.550,2.250,2.316,2.328
FI Y 8.444s 2022-12-22 15:42 Jonttutonttu #6986 1.450,2.300,2.333,2.361
RO Y 8.444s 2022-12-22 16:18 Dannysh500 #6987 1.500,2.250,2.383,2.311
UA Y 8.444s 2022-12-23 09:36 InhumanButter49 #6988 1.350,2.366,2.350,2.378
IL Y 8.444s 2023-02-01 10:32 yehontanz17 #6989 1.350,2.300,2.383,2.411
SI Y 8.444s 2023-02-02 10:25 itsrokplayz #6990 1.400,2.366,2.300,2.378
CA N 8.444s 2023-02-05 00:30 FlippantBuffalo #6991 1.350,2.300,2.383,2.411
SK N 8.444s 2023-02-07 13:25 DrMacik #6992 1.350,2.300,2.383,2.411
GB Y 8.444s 2023-02-09 16:19 CheeseFinger69 #6993 1.383,2.367,2.316,2.378
RU Y 8.444s 2023-02-10 03:52 zxcdemon #6994 1.483,2.250,2.400,2.311
FR Y 8.444s 2023-02-11 12:15 Boniour #6995 1.400,2.350,2.350,2.344
FR N 8.444s 2023-03-08 14:22 deleted user #6996 1.350,2.366,2.384,2.344
US Y 8.444s 2023-04-16 03:20 GeneticPhysiolo #6997 1.450,2.383,2.267,2.344
DE N 8.444s 2023-04-30 10:19 WolfiJr #6998 1.500,2.366,2.267,2.311
GB N 8.444s 2023-05-06 18:48 NightSpawner #6999 1.500,2.250,2.383,2.311
RO N 8.444s 2023-05-16 07:37 Ericsson 3D #7000 1.450,2.366,2.300,2.328
Next page